WA4BPS Weather Reports


time (UTC)temp
C
wind
direction
speed
KPH
gust
KPH
rain 1hr
cm
rain 24hr
cm
rain mn
cm
humidity
%
barometer
mb
20260831063330 24 176 4.8 12.9 0.00 0.00 0.00 76 1016.5
20260831063240 24 171 4.8 12.9 0.00 0.00 0.00 76 1016.5
20260831063151 24 175 3.2 12.9 0.00 0.00 0.00 76 1016.5
20260831063026 24 165 6.4 12.9 0.00 0.00 0.00 76 1016.5
20260831062928 24 188 8.0 12.9 0.00 0.00 0.00 76 1016.5
20260831062828 24 167 8.0 11.3 0.00 0.00 0.00 76 1016.5
20260831062725 24 172 4.8 11.3 0.00 0.00 0.00 76 1016.6
20260831062643 24 169 4.8 11.3 0.00 0.00 0.00 76 1016.6
20260831062542 24 161 6.4 11.3 0.00 0.00 0.00 76 1016.6
20260831062501 24 155 8.0 11.3 0.00 0.00 0.00 76 1016.6
20260831062359 24 144 6.4 12.9 0.00 0.00 0.00 76 1016.6
20260831062237 24 182 6.4 12.9 0.00 0.00 0.00 76 1016.6
20260831062136 24 165 6.4 12.9 0.00 0.00 0.00 76 1016.6
20260831062037 24 158 4.8 12.9 0.00 0.00 0.00 76 1016.6
20260831061936 24 162 4.8 12.9 0.00 0.00 0.00 76 1016.6
20260831061834 24 174 4.8 12.9 0.00 0.00 0.00 76 1016.6
20260831061754 24 171 4.8 12.9 0.00 0.00 0.00 76 1016.6
20260831061702 24 171 6.4 12.9 0.00 0.00 0.00 76 1016.6
20260831061559 24 174 6.4 12.9 0.00 0.00 0.00 76 1016.6
20260831061437 24 161 8.0 12.9 0.00 0.00 0.00 76 1016.6
20260831061335 24 150 8.0 12.9 0.00 0.00 0.00 76 1016.6
20260831061233 24 151 6.4 12.9 0.00 0.00 0.00 76 1016.8
20260831061138 24 160 8.0 12.9 0.00 0.00 0.00 76 1016.8
20260831061038 24 164 6.4 12.9 0.00 0.00 0.00 76 1016.8
20260831060937 24 165 6.4 12.9 0.00 0.00 0.00 76 1016.8
20260831060835 24 155 6.4 12.9 0.00 0.00 0.00 76 1016.8
20260831060753 24 150 8.0 12.9 0.00 0.00 0.00 76 1016.8
20260831060631 24 138 4.8 12.9 0.00 0.00 0.00 76 1016.8
20260831060530 24 128 6.4 12.9 0.00 0.00 0.00 76 1016.8
20260831060433 24 144 8.0 12.9 0.00 0.00 0.00 76 1016.8
20260831060330 24 161 9.7 11.3 0.00 0.00 0.00 76 1016.8
20260831060240 24 151 8.0 11.3 0.00 0.00 0.00 76 1016.8
20260831060151 24 154 9.7 11.3 0.00 0.00 0.00 76 1016.8
20260831060047 24 150 9.7 11.3 0.00 0.00 0.00 76 1016.8
20260831055944 24 152 8.0 11.3 0.00 0.00 0.00 76 1016.8
20260831055902 24 154 6.4 11.3 0.00 0.00 0.00 76 1016.8
20260831055739 24 162 4.8 11.3 0.00 0.00 0.00 76 1016.7
20260831055658 24 158 4.8 11.3 0.00 0.00 0.00 76 1016.7
20260831055540 24 160 4.8 11.3 0.00 0.00 0.00 76 1016.7
20260831055439 24 162 3.2 11.3 0.00 0.00 0.00 76 1016.7
20260831055337 24 160 4.8 11.3 0.00 0.00 0.00 75 1016.7
20260831055235 24 160 9.7 11.3 0.00 0.00 0.00 75 1016.7
20260831055138 24 162 6.4 11.3 0.00 0.00 0.00 75 1016.7
20260831055036 24 165 6.4 11.3 0.00 0.00 0.00 75 1016.7
20260831054935 24 165 4.8 11.3 0.00 0.00 0.00 75 1016.7
20260831054838 24 161 4.8 11.3 0.00 0.00 0.00 75 1016.7
20260831054757 24 157 6.4 11.3 0.00 0.00 0.00 75 1016.7
20260831054707 24 152 6.4 11.3 0.00 0.00 0.00 75 1016.7
20260831054524 24 154 8.0 11.3 0.00 0.00 0.00 75 1016.7
20260831054444 24 150 8.0 11.3 0.00 0.00 0.00 75 1016.7
20260831054403 24 157 6.4 11.3 0.00 0.00 0.00 75 1016.7
20260831054239 24 171 6.4 11.3 0.00 0.00 0.00 75 1016.5
20260831054138 24 167 4.8 11.3 0.00 0.00 0.00 75 1016.5
20260831054036 24 151 4.8 11.3 0.00 0.00 0.00 75 1016.5
20260831053939 24 155 6.4 11.3 0.00 0.00 0.00 75 1016.5
20260831053837 24 161 6.4 11.3 0.00 0.00 0.00 75 1016.5
20260831053737 24 167 8.0 11.3 0.00 0.00 0.00 75 1016.5
20260831053635 24 148 8.0 11.3 0.00 0.00 0.00 75 1016.5
20260831053534 24 151 8.0 11.3 0.00 0.00 0.00 75 1016.5
20260831053432 24 151 4.8 11.3 0.00 0.00 0.00 75 1016.5
20260831053350 24 161 6.4 11.3 0.00 0.00 0.00 75 1016.5
20260831053252 24 147 8.0 11.3 0.00 0.00 0.00 75 1016.5
20260831053222 24 154 6.4 11.3 0.00 0.00 0.00 75 1016.5
20260831053058 24 161 8.0 12.9 0.00 0.00 0.00 75 1016.5
20260831052936 24 145 9.7 12.9 0.00 0.00 0.00 75 1016.5
20260831052855 24 148 6.4 12.9 0.00 0.00 0.00 75 1016.5
20260831052733 24 148 6.4 12.9 0.00 0.00 0.00 75 1016.5
20260831052632 24 137 6.4 12.9 0.00 0.00 0.00 75 1016.5
20260831052530 24 145 8.0 12.9 0.00 0.00 0.00 75 1016.5
20260831052433 24 144 8.0 12.9 0.00 0.00 0.00 75 1016.5
20260831052350 24 144 6.4 12.9 0.00 0.00 0.00 75 1016.5
20260831052248 25 136 8.0 12.9 0.00 0.00 0.00 75 1016.5
20260831052127 25 128 11.3 12.9 0.00 0.00 0.00 75 1016.5
20260831052026 25 147 8.0 12.9 0.00 0.00 0.00 75 1016.5
20260831051926 25 137 8.0 12.9 0.00 0.00 0.00 75 1016.5
20260831051824 25 141 9.7 12.9 0.00 0.00 0.00 75 1016.5
20260831051733 25 137 8.0 12.9 0.00 0.00 0.00 75 1016.5
20260831051645 25 136 9.7 12.9 0.00 0.00 0.00 75 1016.5
20260831051543 25 145 6.4 12.9 0.00 0.00 0.00 74 1016.5
20260831051441 25 143 6.4 12.9 0.00 0.00 0.00 74 1016.5
20260831051341 25 138 8.0 12.9 0.00 0.00 0.00 74 1016.5
20260831051301 25 138 8.0 12.9 0.00 0.00 0.00 74 1016.5
20260831051138 25 144 8.0 12.9 0.00 0.00 0.00 74 1016.5
20260831051037 25 138 8.0 12.9 0.00 0.00 0.00 74 1016.5
20260831050936 25 143 9.7 12.9 0.00 0.00 0.00 74 1016.5
20260831050858 25 151 9.7 12.9 0.00 0.00 0.00 74 1016.5
20260831050757 25 143 6.4 11.3 0.00 0.00 0.00 74 1016.5
20260831050636 25 157 4.8 11.3 0.00 0.00 0.00 74 1016.5
20260831050553 25 145 8.0 11.3 0.00 0.00 0.00 74 1016.5
20260831050431 25 144 4.8 12.9 0.00 0.00 0.00 74 1016.5
20260831050331 25 138 6.4 12.9 0.00 0.00 0.00 74 1016.5
20260831050229 25 140 6.4 12.9 0.00 0.00 0.00 74 1016.5
20260831050159 25 137 6.4 12.9 0.00 0.00 0.00 74 1016.5
20260831050040 25 124 6.4 12.9 0.00 0.00 0.00 74 1016.5
20260831045938 25 121 4.8 12.9 0.00 0.00 0.00 74 1016.5
20260831045839 25 113 4.8 12.9 0.00 0.00 0.00 74 1016.5
20260831045738 25 119 9.7 12.9 0.00 0.00 0.00 74 1016.6
20260831045638 25 127 8.0 12.9 0.00 0.00 0.00 74 1016.6
20260831045540 25 124 8.0 12.9 0.00 0.00 0.00 74 1016.6
20260831045440 25 141 8.0 12.9 0.00 0.00 0.00 74 1016.6
20260831045343 25 133 8.0 12.9 0.00 0.00 0.00 74 1016.6
20260831045241 25 121 8.0 12.9 0.00 0.00 0.00 73 1016.6
20260831045139 25 121 9.7 12.9 0.00 0.00 0.00 73 1016.6
20260831045037 25 133 8.0 11.3 0.00 0.00 0.00 74 1016.6
20260831044956 25 124 4.8 11.3 0.00 0.00 0.00 73 1016.6
20260831044833 25 117 6.4 11.3 0.00 0.00 0.00 73 1016.6
20260831044732 25 114 8.0 11.3 0.00 0.00 0.00 73 1016.6
20260831044700 25 141 6.4 11.3 0.00 0.00 0.00 74 1016.6
20260831044542 25 137 4.8 11.3 0.00 0.00 0.00 73 1016.6
20260831044440 25 138 8.0 11.3 0.00 0.00 0.00 73 1016.6
20260831044400 25 137 8.0 11.3 0.00 0.00 0.00 73 1016.6
20260831044239 25 137 8.0 11.3 0.00 0.00 0.00 73 1016.5
20260831044137 25 134 6.4 11.3 0.00 0.00 0.00 73 1016.5
20260831044037 25 133 8.0 11.3 0.00 0.00 0.00 73 1016.5
20260831043935 25 134 6.4 11.3 0.00 0.00 0.00 73 1016.5
20260831043838 25 137 6.4 11.3 0.00 0.00 0.00 73 1016.5
20260831043735 25 141 4.8 11.3 0.00 0.00 0.00 73 1016.5
20260831043633 25 145 4.8 11.3 0.00 0.00 0.00 73 1016.5
20260831043553 25 137 8.0 11.3 0.00 0.00 0.00 73 1016.5
20260831043452 25 143 4.8 11.3 0.00 0.00 0.00 73 1016.5
20260831043330 25 140 4.8 11.3 0.00 0.00 0.00 73 1016.5
20260831043229 25 144 9.7 11.3 0.00 0.00 0.00 73 1016.5
20260831043201 25 143 8.0 11.3 0.00 0.00 0.00 73 1016.5
20260831043042 25 141 6.4 11.3 0.00 0.00 0.00 73 1016.5
20260831043000 25 147 4.8 11.3 0.00 0.00 0.00 73 1016.5
20260831042837 25 148 8.0 11.3 0.00 0.00 0.00 73 1016.5
20260831042738 25 140 6.4 11.3 0.00 0.00 0.00 73 1016.6
20260831042638 25 141 9.7 11.3 0.00 0.00 0.00 74 1016.6
20260831042536 25 136 6.4 11.3 0.00 0.00 0.00 73 1016.6
20260831042434 25 133 6.4 11.3 0.00 0.00 0.00 73 1016.6
20260831042332 25 144 6.4 11.3 0.00 0.00 0.00 74 1016.6
20260831042256 25 143 4.8 11.3 0.00 0.00 0.00 74 1016.6
20260831042133 25 145 6.4 11.3 0.00 0.00 0.00 74 1016.6
20260831042032 25 140 6.4 11.3 0.00 0.00 0.00 74 1016.6
20260831041951 25 141 6.4 11.3 0.00 0.00 0.00 74 1016.6
20260831041828 25 140 9.7 11.3 0.00 0.00 0.00 74 1016.6
20260831041726 25 141 6.4 11.3 0.00 0.00 0.00 74 1016.6
20260831041656 25 147 6.4 11.3 0.00 0.00 0.00 74 1016.6
20260831041534 25 145 6.4 11.3 0.00 0.00 0.00 74 1016.6
20260831041453 25 151 6.4 11.3 0.00 0.00 0.00 74 1016.6
20260831041355 25 134 8.0 11.3 0.00 0.00 0.00 74 1016.6
20260831041233 25 134 6.4 11.3 0.00 0.00 0.00 74 1016.8
20260831041132 25 137 4.8 11.3 0.00 0.00 0.00 74 1016.8
20260831041032 25 134 4.8 11.3 0.00 0.00 0.00 74 1016.8
20260831040954 25 133 4.8 11.3 0.00 0.00 0.00 74 1016.8
20260831040831 25 136 6.4 11.3 0.00 0.00 0.00 74 1016.8
20260831040730 25 133 9.7 11.3 0.00 0.00 0.00 74 1016.8
20260831040633 25 134 8.0 11.3 0.00 0.00 0.00 74 1016.8
20260831040533 25 137 6.4 11.3 0.00 0.00 0.00 73 1016.8
20260831040432 25 127 4.8 11.3 0.00 0.00 0.00 73 1016.8
20260831040331 25 121 6.4 11.3 0.00 0.00 0.00 73 1016.8
20260831040229 25 119 6.4 11.3 0.00 0.00 0.00 73 1016.8
20260831040200 25 120 8.0 11.3 0.00 0.00 0.00 73 1016.8
20260831040038 25 144 6.4 11.3 0.00 0.00 0.00 73 1016.8
20260831035941 25 144 6.4 11.3 0.00 0.00 0.00 73 1016.8
20260831035859 25 145 4.8 11.3 0.00 0.00 0.00 73 1016.8
20260831035737 25 148 8.0 11.3 0.00 0.00 0.00 73 1016.8
20260831035636 25 137 4.8 9.7 0.00 0.00 0.00 73 1016.8
20260831035535 25 138 6.4 9.7 0.00 0.00 0.00 73 1016.8
20260831035433 25 137 4.8 9.7 0.00 0.00 0.00 73 1016.8
20260831035332 25 140 4.8 9.7 0.00 0.00 0.00 73 1016.8
20260831035234 25 140 6.4 9.7 0.00 0.00 0.00 72 1016.8
20260831035133 25 141 3.2 9.7 0.00 0.00 0.00 72 1016.8
20260831035034 25 143 1.6 9.7 0.00 0.00 0.00 72 1016.8
20260831034932 25 141 4.8 9.7 0.00 0.00 0.00 72 1016.8
20260831034852 25 141 4.8 11.3 0.00 0.00 0.00 73 1016.8
20260831034742 25 143 8.0 11.3 0.00 0.00 0.00 73 1016.8
20260831034649 25 143 8.0 11.3 0.00 0.00 0.00 73 1016.8
20260831034527 25 137 8.0 11.3 0.00 0.00 0.00 73 1016.8
20260831034429 25 137 4.8 11.3 0.00 0.00 0.00 72 1016.8
20260831034329 25 137 8.0 11.3 0.00 0.00 0.00 72 1016.8
20260831034227 25 137 6.4 11.3 0.00 0.00 0.00 72 1017.1
20260831034125 25 131 6.4 11.3 0.00 0.00 0.00 72 1017.1
20260831034024 25 133 8.0 11.3 0.00 0.00 0.00 73 1017.1
20260831033924 25 131 6.4 11.3 0.00 0.00 0.00 72 1017.1
20260831033827 25 127 4.8 11.3 0.00 0.00 0.00 72 1017.1
20260831033725 25 130 8.0 11.3 0.00 0.00 0.00 72 1017.1
20260831033624 25 136 6.4 9.7 0.00 0.00 0.00 72 1017.1
20260831033543 25 137 4.8 9.7 0.00 0.00 0.00 72 1017.1
20260831033502 25 136 4.8 9.7 0.00 0.00 0.00 72 1017.1
20260831033400 25 137 6.4 9.7 0.00 0.00 0.00 72 1017.1
20260831033256 25 138 6.4 9.7 0.00 0.00 0.00 72 1017.1
20260831033225 25 137 4.8 9.7 0.00 0.00 0.00 72 1017.1
20260831033041 25 138 4.8 9.7 0.00 0.00 0.00 72 1017.1
20260831032944 25 140 6.4 9.7 0.00 0.00 0.00 72 1017.1
20260831032843 25 144 6.4 9.7 0.00 0.00 0.00 72 1017.1
20260831032802 25 140 4.8 9.7 0.00 0.00 0.00 72 1017.2
20260831032638 25 140 6.4 9.7 0.00 0.00 0.00 72 1017.2
20260831032538 25 143 6.4 9.7 0.00 0.00 0.00 71 1017.2
20260831032437 25 143 8.0 9.7 0.00 0.00 0.00 71 1017.2
20260831032335 25 138 6.4 9.7 0.00 0.00 0.00 71 1017.2
20260831032238 25 137 6.4 9.7 0.00 0.00 0.00 71 1017.2
20260831032136 25 137 6.4 9.7 0.00 0.00 0.00 71 1017.2
20260831032036 25 138 3.2 9.7 0.00 0.00 0.00 71 1017.2
20260831031939 25 134 4.8 9.7 0.00 0.00 0.00 71 1017.2
20260831031837 25 133 6.4 9.7 0.00 0.00 0.00 71 1017.2
20260831031735 25 128 6.4 9.7 0.00 0.00 0.00 71 1017.2
20260831031703 25 130 4.8 9.7 0.00 0.00 0.00 71 1017.2
20260831031544 25 131 4.8 9.7 0.00 0.00 0.00 71 1017.2
20260831031442 25 131 4.8 9.7 0.00 0.00 0.00 71 1017.2
20260831031340 25 131 6.4 9.7 0.00 0.00 0.00 71 1017.2
20260831031239 25 133 6.4 9.7 0.00 0.00 0.00 71 1017.3
20260831031138 25 131 4.8 9.7 0.00 0.00 0.00 71 1017.3
20260831031037 25 130 6.4 9.7 0.00 0.00 0.00 72 1017.3
20260831030935 25 130 4.8 9.7 0.00 0.00 0.00 72 1017.3
20260831030838 25 130 4.8 9.7 0.00 0.00 0.00 72 1017.3
20260831030737 25 128 4.8 9.7 0.00 0.00 0.00 72 1017.3
20260831030636 25 130 3.2 9.7 0.00 0.00 0.00 72 1017.3
20260831030534 25 130 4.8 9.7 0.00 0.00 0.00 72 1017.3
20260831030432 25 131 6.4 9.7 0.00 0.00 0.00 72 1017.3
20260831030352 25 131 3.2 9.7 0.00 0.00 0.00 72 1017.3
20260831030312 25 130 4.8 9.7 0.00 0.00 0.00 72 1017.3
20260831030220 25 124 6.4 11.3 0.00 0.00 0.00 72 1017.3
20260831030039 25 119 4.8 11.3 0.00 0.00 0.00 72 1017.3
20260831025958 25 121 3.2 11.3 0.00 0.00 0.00 72 1017.3
20260831025834 25 119 3.2 11.3 0.00 0.00 0.00 72 1017.3
20260831025733 25 120 6.4 11.3 0.00 0.00 0.00 72 1017.3
20260831025632 25 119 6.4 11.3 0.00 0.00 0.00 72 1017.3
20260831025550 25 120 8.0 11.3 0.00 0.00 0.00 72 1017.3
20260831025428 25 116 4.8 11.3 0.00 0.00 0.00 73 1017.3
20260831025332 25 120 8.0 11.3 0.00 0.00 0.00 73 1017.3
20260831025253 25 121 8.0 11.3 0.00 0.00 0.00 72 1017.3
20260831025130 25 119 6.4 9.7 0.00 0.00 0.00 72 1017.3
20260831025029 25 123 6.4 9.7 0.00 0.00 0.00 72 1017.3
20260831024928 25 121 6.4 11.3 0.00 0.00 0.00 73 1017.3
20260831024827 25 123 4.8 11.3 0.00 0.00 0.00 73 1017.3
20260831024736 25 123 6.4 11.3 0.00 0.00 0.00 73 1017.3
20260831024646 25 124 8.0 11.3 0.00 0.00 0.00 73 1017.3
20260831024528 25 119 6.4 11.3 0.00 0.00 0.00 73 1017.3
20260831024427 25 123 6.4 11.3 0.00 0.00 0.00 73 1017.3
20260831024327 25 124 6.4 11.3 0.00 0.00 0.00 73 1017.3
20260831024226 25 120 6.4 11.3 0.00 0.00 0.00 73 1017.2
20260831024126 25 127 8.0 11.3 0.00 0.00 0.00 73 1017.2
20260831024025 25 136 6.4 9.7 0.00 0.00 0.00 73 1017.2
20260831023945 25 134 8.0 9.7 0.00 0.00 0.00 73 1017.2
20260831023827 25 134 6.4 9.7 0.00 0.00 0.00 73 1017.2
20260831023726 25 136 4.8 9.7 0.00 0.00 0.00 73 1017.2
20260831023624 25 134 6.4 9.7 0.00 0.00 0.00 73 1017.2
20260831023543 25 136 4.8 9.7 0.00 0.00 0.00 73 1017.2
20260831023442 25 136 4.8 9.7 0.00 0.00 0.00 73 1017.2
20260831023342 25 136 6.4 9.7 0.00 0.00 0.00 73 1017.2
20260831023250 25 136 4.8 9.7 0.00 0.00 0.00 73 1017.2
20260831023146 25 136 4.8 9.7 0.00 0.00 0.00 73 1017.2
20260831023044 25 137 6.4 9.7 0.00 0.00 0.00 73 1017.2
20260831022941 25 137 4.8 9.7 0.00 0.00 0.00 73 1017.2
20260831022839 25 138 4.8 9.7 0.00 0.00 0.00 73 1017.2
20260831022738 25 137 6.4 9.7 0.00 0.00 0.00 73 1017.1
20260831022636 25 138 8.0 9.7 0.00 0.00 0.00 73 1017.1
20260831022556 25 138 6.4 9.7 0.00 0.00 0.00 73 1017.1
20260831022454 25 138 4.8 9.7 0.00 0.00 0.00 73 1017.1
20260831022332 25 138 8.0 9.7 0.00 0.00 0.00 73 1017.1
20260831022235 25 141 4.8 9.7 0.00 0.00 0.00 73 1017.1
20260831022134 25 143 3.2 9.7 0.00 0.00 0.00 73 1017.1
20260831022032 25 143 3.2 9.7 0.00 0.00 0.00 73 1017.1
20260831021951 25 143 4.8 9.7 0.00 0.00 0.00 73 1017.1
20260831021830 25 144 4.8 9.7 0.00 0.00 0.00 73 1017.1
20260831021728 25 151 4.8 9.7 0.00 0.00 0.00 73 1017.1
20260831021659 25 151 6.4 9.7 0.00 0.00 0.00 73 1017.1
20260831021541 25 151 6.4 9.7 0.00 0.00 0.00 73 1017.1
20260831021502 25 155 4.8 9.7 0.00 0.00 0.00 73 1017.1
20260831021339 25 155 6.4 9.7 0.00 0.00 0.00 73 1017.1
20260831021238 25 154 6.4 9.7 0.00 0.00 0.00 73 1017.1
20260831021135 25 155 3.2 8.0 0.00 0.00 0.00 73 1017.1
20260831021034 25 157 4.8 8.0 0.00 0.00 0.00 72 1017.1
20260831020953 25 157 4.8 8.0 0.00 0.00 0.00 72 1017.1
20260831020855 25 157 4.8 8.0 0.00 0.00 0.00 73 1017.1
20260831020736 25 154 4.8 8.0 0.00 0.00 0.00 73 1017.1
20260831020658 25 155 3.2 9.7 0.00 0.00 0.00 73 1017.1
20260831020537 25 157 4.8 9.7 0.00 0.00 0.00 73 1017.1
20260831020436 25 157 4.8 9.7 0.00 0.00 0.00 73 1017.1
20260831020334 25 158 4.8 9.7 0.00 0.00 0.00 73 1017.1
20260831020232 25 157 4.8 9.7 0.00 0.00 0.00 73 1017.1
20260831020202 25 157 3.2 9.7 0.00 0.00 0.00 73 1017.1
20260831020039 25 157 1.6 9.7 0.00 0.00 0.00 73 1017.1
20260831015939 25 158 4.8 9.7 0.00 0.00 0.00 72 1017.1
20260831015842 25 158 6.4 9.7 0.00 0.00 0.00 73 1017.1
20260831015741 25 171 4.8 9.7 0.00 0.00 0.00 73 1016.9
20260831015641 25 171 3.2 9.7 0.00 0.00 0.00 73 1016.9
20260831015541 25 171 4.8 9.7 0.00 0.00 0.00 73 1016.9
20260831015440 25 171 4.8 9.7 0.00 0.00 0.00 73 1016.9
20260831015400 25 171 4.8 9.7 0.00 0.00 0.00 73 1016.9
20260831015257 25 171 6.4 9.7 0.00 0.00 0.00 73 1016.9
20260831015140 25 172 6.4 9.7 0.00 0.00 0.00 73 1016.9
20260831015039 25 174 6.4 8.0 0.00 0.00 0.00 73 1016.9
20260831014939 25 175 3.2 8.0 0.00 0.00 0.00 73 1016.9
20260831014836 25 175 3.2 8.0 0.00 0.00 0.00 73 1016.9
20260831014755 25 176 6.4 8.0 0.00 0.00 0.00 73 1016.9
20260831014704 25 179 6.4 8.0 0.00 0.00 0.00 73 1016.9
20260831014541 25 184 3.2 8.0 0.00 0.00 0.00 72 1016.9
20260831014441 25 182 3.2 8.0 0.00 0.00 0.00 72 1016.9
20260831014343 25 184 4.8 8.0 0.00 0.00 0.00 72 1016.9
20260831014242 25 184 4.8 8.0 0.00 0.00 0.00 72 1016.7
20260831014200 25 182 4.8 8.0 0.00 0.00 0.00 72 1016.7
20260831014038 25 186 3.2 6.4 0.00 0.00 0.00 72 1016.7
20260831013934 25 185 3.2 6.4 0.00 0.00 0.00 72 1016.7
20260831013832 25 186 3.2 6.4 0.00 0.00 0.00 72 1016.7
20260831013730 25 186 3.2 6.4 0.00 0.00 0.00 72 1016.7
20260831013629 25 186 3.2 6.4 0.00 0.00 0.00 72 1016.7
20260831013531 25 184 3.2 6.4 0.00 0.00 0.00 72 1016.7
20260831013429 25 185 3.2 6.4 0.00 0.00 0.00 72 1016.7
20260831013328 25 186 3.2 4.8 0.00 0.00 0.00 72 1016.7
20260831013237 25 186 4.8 4.8 0.00 0.00 0.00 72 1016.7
20260831013146 25 186 4.8 4.8 0.00 0.00 0.00 72 1016.7
20260831013043 25 186 4.8 4.8 0.00 0.00 0.00 72 1016.7
20260831012941 25 185 4.8 4.8 0.00 0.00 0.00 72 1016.7
20260831012839 25 186 3.2 6.4 0.00 0.00 0.00 72 1016.7
20260831012741 25 188 1.6 6.4 0.00 0.00 0.00 72 1016.4
20260831012700 25 186 1.6 6.4 0.00 0.00 0.00 72 1016.4
20260831012557 25 188 1.6 6.4 0.00 0.00 0.00 72 1016.4
20260831012434 25 181 3.2 6.4 0.00 0.00 0.00 72 1016.4
20260831012333 25 186 3.2 6.4 0.00 0.00 0.00 72 1016.4
20260831012232 25 186 3.2 8.0 0.00 0.00 0.00 72 1016.4
20260831012130 25 186 3.2 8.0 0.00 0.00 0.00 72 1016.4
20260831012028 25 186 4.8 8.0 0.00 0.00 0.00 72 1016.4
20260831011932 26 186 3.2 8.0 0.00 0.00 0.00 72 1016.4
20260831011855 26 186 3.2 8.0 0.00 0.00 0.00 72 1016.4
20260831011734 26 185 3.2 8.0 0.00 0.00 0.00 72 1016.4
20260831011702 26 186 3.2 8.0 0.00 0.00 0.00 72 1016.4
20260831011541 26 182 3.2 8.0 0.00 0.00 0.00 72 1016.4
20260831011439 26 186 4.8 8.0 0.00 0.00 0.00 72 1016.4
20260831011338 26 188 4.8 8.0 0.00 0.00 0.00 72 1016.4
20260831011240 26 186 3.2 8.0 0.00 0.00 0.00 72 1016.4
20260831011139 26 184 4.8 8.0 0.00 0.00 0.00 71 1016.4
20260831011038 26 192 4.8 6.4 0.00 0.00 0.00 71 1016.4
20260831010936 26 193 3.2 6.4 0.00 0.00 0.00 71 1016.4
20260831010835 26 193 4.8 6.4 0.00 0.00 0.00 71 1016.4
20260831010733 26 193 4.8 6.4 0.00 0.00 0.00 71 1016.4
20260831010633 26 195 4.8 6.4 0.00 0.00 0.00 71 1016.4
20260831010536 26 193 3.2 4.8 0.00 0.00 0.00 71 1016.4
20260831010434 26 193 3.2 4.8 0.00 0.00 0.00 71 1016.4
20260831010332 26 195 4.8 4.8 0.00 0.00 0.00 71 1016.4
20260831010243 26 195 3.2 4.8 0.00 0.00 0.00 71 1016.4
20260831010153 26 196 3.2 4.8 0.00 0.00 0.00 71 1016.4
20260831010031 26 195 3.2 4.8 0.00 0.00 0.00 71 1016.4
20260831005950 26 195 4.8 4.8 0.00 0.00 0.00 70 1016.4
20260831005827 26 195 3.2 4.8 0.00 0.00 0.00 70 1016.4
20260831005749 26 193 3.2 4.8 0.00 0.00 0.00 70 1016.2
20260831005628 26 195 3.2 4.8 0.00 0.00 0.00 70 1016.2
20260831005527 26 196 3.2 4.8 0.00 0.00 0.00 70 1016.2
20260831005428 26 195 3.2 4.8 0.00 0.00 0.00 70 1016.2
20260831005329 26 195 3.2 4.8 0.00 0.00 0.00 70 1016.2
20260831005231 26 193 3.2 4.8 0.00 0.00 0.00 70 1016.2
20260831005129 26 191 3.2 4.8 0.00 0.00 0.00 70 1016.2
20260831005031 26 195 3.2 4.8 0.00 0.00 0.00 70 1016.2
20260831004931 26 193 3.2 4.8 0.00 0.00 0.00 69 1016.2
20260831004829 26 195 3.2 4.8 0.00 0.00 0.00 69 1016.2
20260831004740 26 195 3.2 4.8 0.00 0.00 0.00 69 1016.2
20260831004649 26 195 3.2 4.8 0.00 0.00 0.00 69 1016.2
20260831004526 26 195 3.2 4.8 0.00 0.00 0.00 69 1016.2
20260831004424 26 195 3.2 4.8 0.00 0.00 0.00 69 1016.2
20260831004327 26 195 3.2 4.8 0.00 0.00 0.00 69 1016.2
20260831004228 26 195 3.2 4.8 0.00 0.00 0.00 69 1016.1
20260831004127 26 196 3.2 4.8 0.00 0.00 0.00 69 1016.1
20260831004025 26 195 3.2 4.8 0.00 0.00 0.00 69 1016.1
20260831003924 26 195 3.2 4.8 0.00 0.00 0.00 69 1016.1
20260831003821 26 192 1.6 4.8 0.00 0.00 0.00 69 1016.1
20260831003724 26 195 3.2 4.8 0.00 0.00 0.00 69 1016.1
20260831003631 26 193 1.6 4.8 0.00 0.00 0.00 69 1016.1
20260831003530 26 195 1.6 4.8 0.00 0.00 0.00 69 1016.1
20260831003429 26 195 3.2 4.8 0.00 0.00 0.00 69 1016.1
20260831003329 26 195 3.2 4.8 0.00 0.00 0.00 69 1016.1
20260831003247 26 195 4.8 4.8 0.00 0.00 0.00 68 1016.1
20260831003157 26 195 3.2 4.8 0.00 0.00 0.00 68 1016.1
20260831003034 26 195 1.6 4.8 0.00 0.00 0.00 69 1016.1
20260831002938 26 195 1.6 4.8 0.00 0.00 0.00 69 1016.1
20260831002836 26 195 1.6 4.8 0.00 0.00 0.00 69 1016.1
20260831002734 26 189 0.0 4.8 0.00 0.00 0.00 69 1016.2
20260831002632 26 193 0.0 3.2 0.00 0.00 0.00 68 1016.2
20260831002533 26 195 0.0 3.2 0.00 0.00 0.00 68 1016.2
20260831002433 26 195 0.0 3.2 0.00 0.00 0.00 69 1016.2
20260831002352 26 195 0.0 3.2 0.00 0.00 0.00 69 1016.2
20260831002228 26 193 0.0 3.2 0.00 0.00 0.00 69 1016.2
20260831002132 26 192 0.0 3.2 0.00 0.00 0.00 69 1016.2
20260831002031 26 195 1.6 3.2 0.00 0.00 0.00 69 1016.2
20260831001953 26 195 1.6 3.2 0.00 0.00 0.00 68 1016.2
20260831001830 26 196 0.0 3.2 0.00 0.00 0.00 68 1016.2
20260831001730 26 195 1.6 4.8 0.00 0.00 0.00 68 1016.2
20260831001700 26 195 1.6 4.8 0.00 0.00 0.00 68 1016.2
20260831001537 26 193 1.6 4.8 0.00 0.00 0.00 68 1016.2
20260831001441 26 195 0.0 4.8 0.00 0.00 0.00 68 1016.2
20260831001339 26 192 0.0 4.8 0.00 0.00 0.00 68 1016.2
20260831001238 26 195 0.0 4.8 0.00 0.00 0.00 68 1016.3
20260831001136 26 196 1.6 4.8 0.00 0.00 0.00 68 1016.3
20260831001035 26 195 1.6 4.8 0.00 0.00 0.00 68 1016.3
20260831000934 26 195 1.6 4.8 0.00 0.00 0.00 68 1016.3
20260831000833 27 189 1.6 4.8 0.00 0.00 0.00 68 1016.3
20260831000736 27 195 1.6 4.8 0.00 0.00 0.00 68 1016.3
20260831000636 27 196 1.6 3.2 0.00 0.00 0.00 68 1016.3
20260831000534 27 193 0.0 3.2 0.00 0.00 0.00 68 1016.3
20260831000432 27 196 0.0 3.2 0.00 0.00 0.00 68 1016.3
20260831000332 27 195 0.0 3.2 0.00 0.00 0.00 68 1016.3
20260831000241 27 195 0.0 4.8 0.00 0.00 0.00 67 1016.3
20260831000150 27 193 0.0 4.8 0.00 0.00 0.00 67 1016.3
20260831000029 27 189 1.6 4.8 0.00 0.00 0.00 67 1016.3
20260830235951 27 195 0.0 4.8 0.00 0.00 0.00 67 1016.3
20260830235828 27 195 0.0 4.8 0.00 0.00 0.00 67 1016.3
20260830235748 27 195 0.0 4.8 0.00 0.00 0.00 67 1016.3
20260830235646 27 193 0.0 4.8 0.00 0.00 0.00 67 1016.3
20260830235544 27 195 1.6 4.8 0.00 0.00 0.00 67 1016.3
20260830235442 27 195 1.6 4.8 0.00 0.00 0.00 66 1016.3
20260830235342 27 195 1.6 4.8 0.00 0.00 0.00 66 1016.3
20260830235237 27 195 1.6 4.8 0.00 0.00 0.00 66 1016.3
20260830235138 27 195 1.6 4.8 0.00 0.00 0.00 66 1016.3
20260830235037 27 196 1.6 4.8 0.00 0.00 0.00 66 1016.3
20260830234934 27 193 3.2 4.8 0.00 0.00 0.00 66 1016.3
20260830234834 27 195 3.2 4.8 0.00 0.00 0.00 66 1016.3
20260830234734 27 195 0.0 4.8 0.00 0.00 0.00 66 1016.3
20260830234703 27 195 1.6 4.8 0.00 0.00 0.00 66 1016.3
20260830234601 27 193 1.6 4.8 0.00 0.00 0.00 66 1016.3
20260830234443 27 195 3.2 4.8 0.00 0.00 0.00 66 1016.3
20260830234343 27 192 3.2 4.8 0.00 0.00 0.00 66 1016.3
20260830234242 27 195 1.6 4.8 0.00 0.00 0.00 66 1016.5
20260830234141 27 196 1.6 3.2 0.00 0.00 0.00 65 1016.5
20260830234040 27 193 3.2 3.2 0.00 0.00 0.00 65 1016.5
20260830233937 27 193 3.2 4.8 0.00 0.00 0.00 65 1016.5
20260830233834 27 195 1.6 4.8 0.00 0.00 0.00 65 1016.5
20260830233739 27 195 1.6 4.8 0.00 0.00 0.00 65 1016.5
20260830233639 27 195 1.6 4.8 0.00 0.00 0.00 65 1016.5
20260830233537 27 195 1.6 4.8 0.00 0.00 0.00 65 1016.5
20260830233456 27 196 1.6 4.8 0.00 0.00 0.00 65 1016.5
20260830233416 27 195 1.6 4.8 0.00 0.00 0.00 65 1016.5
20260830233315 27 195 0.0 4.8 0.00 0.00 0.00 65 1016.5
20260830233224 27 196 1.6 9.7 0.00 0.00 0.00 65 1016.5
20260830233039 27 195 1.6 9.7 0.00 0.00 0.00 65 1016.5
20260830232938 27 195 1.6 9.7 0.00 0.00 0.00 65 1016.5
20260830232841 27 195 1.6 9.7 0.00 0.00 0.00 65 1016.5
20260830232739 27 195 0.0 9.7 0.00 0.00 0.00 65 1016.4
20260830232637 27 193 1.6 9.7 0.00 0.00 0.00 64 1016.4
20260830232537 27 195 1.6 9.7 0.00 0.00 0.00 64 1016.4
20260830232434 27 195 1.6 9.7 0.00 0.00 0.00 64 1016.4
20260830232332 27 189 4.8 9.7 0.00 0.00 0.00 64 1016.4
20260830232235 27 200 3.2 8.0 0.00 0.00 0.00 64 1016.4
20260830232153 27 199 1.6 8.0 0.00 0.00 0.00 64 1016.4
20260830232030 27 199 1.6 8.0 0.00 0.00 0.00 64 1016.4
20260830231929 27 199 0.0 8.0 0.00 0.00 0.00 65 1016.4
20260830231829 27 199 3.2 8.0 0.00 0.00 0.00 65 1016.4
20260830231727 27 200 1.6 8.0 0.00 0.00 0.00 64 1016.4
20260830231656 27 199 4.8 8.0 0.00 0.00 0.00 64 1016.4
20260830231535 27 203 3.2 8.0 0.00 0.00 0.00 64 1016.4
20260830231437 27 208 3.2 4.8 0.00 0.00 0.00 64 1016.4
20260830231339 27 208 3.2 4.8 0.00 0.00 0.00 64 1016.4
20260830231236 27 212 1.6 3.2 0.00 0.00 0.00 64 1016.2
20260830231136 27 212 0.0 4.8 0.00 0.00 0.00 64 1016.2
20260830231035 27 212 0.0 4.8 0.00 0.00 0.00 63 1016.2
20260830230934 27 210 0.0 4.8 0.00 0.00 0.00 63 1016.2
20260830230853 27 212 0.0 4.8 0.00 0.00 0.00 63 1016.2
20260830230730 27 212 0.0 4.8 0.00 0.00 0.00 63 1016.2
20260830230633 27 212 1.6 4.8 0.00 0.00 0.00 63 1016.2
20260830230532 28 212 0.0 4.8 0.00 0.00 0.00 63 1016.2
20260830230453 28 210 0.0 4.8 0.00 0.00 0.00 63 1016.2
20260830230350 28 212 1.6 4.8 0.00 0.00 0.00 63 1016.2
20260830230229 28 213 3.2 4.8 0.00 0.00 0.00 63 1016.2
20260830230201 28 216 1.6 4.8 0.00 0.00 0.00 64 1016.2
20260830230058 28 217 1.6 4.8 0.00 0.00 0.00 63 1016.2
20260830225937 28 213 3.2 4.8 0.00 0.00 0.00 64 1016.2
20260830225840 28 217 1.6 4.8 0.00 0.00 0.00 64 1016.2
20260830225740 28 213 0.0 4.8 0.00 0.00 0.00 64 1016.1
20260830225639 28 219 1.6 4.8 0.00 0.00 0.00 64 1016.1
20260830225538 28 217 1.6 4.8 0.00 0.00 0.00 64 1016.1
20260830225436 28 215 0.0 8.0 0.00 0.00 0.00 64 1016.1
20260830225335 28 217 0.0 8.0 0.00 0.00 0.00 64 1016.1
20260830225234 28 219 0.0 8.0 0.00 0.00 0.00 64 1016.1
20260830225137 28 219 1.6 8.0 0.00 0.00 0.00 64 1016.1
20260830225037 28 217 1.6 8.0 0.00 0.00 0.00 63 1016.1
20260830224955 28 219 1.6 8.0 0.00 0.00 0.00 63 1016.1
20260830224852 28 219 1.6 9.7 0.00 0.00 0.00 63 1016.1
20260830224750 28 220 0.0 12.9 0.00 0.00 0.00 62 1016.1
20260830224720 28 219 1.6 12.9 0.00 0.00 0.00 62 1016.1
20260830224537 28 213 3.2 12.9 0.00 0.00 0.00 62 1016.1
20260830224435 28 205 3.2 12.9 0.00 0.00 0.00 62 1016.1
20260830224337 28 202 1.6 12.9 0.00 0.00 0.00 63 1016.1
20260830224235 28 203 1.6 12.9 0.00 0.00 0.00 63 1016.0
20260830224134 28 202 6.4 12.9 0.00 0.00 0.00 62 1016.0
20260830224054 28 202 6.4 12.9 0.00 0.00 0.00 62 1016.0
20260830223931 28 199 9.7 12.9 0.00 0.00 0.00 63 1016.0
20260830223850 28 202 6.4 11.3 0.00 0.00 0.00 64 1016.0
20260830223728 28 193 3.2 11.3 0.00 0.00 0.00 63 1016.0
20260830223626 28 193 8.0 11.3 0.00 0.00 0.00 64 1016.0
20260830223529 28 191 3.2 11.3 0.00 0.00 0.00 64 1016.0
20260830223429 28 185 4.8 11.3 0.00 0.00 0.00 62 1016.0
20260830223327 28 165 0.0 9.7 0.00 0.00 0.00 63 1016.0
20260830223246 28 167 1.6 9.7 0.00 0.00 0.00 62 1016.0
20260830223217 28 164 1.6 9.7 0.00 0.00 0.00 62 1016.0
20260830223033 28 161 1.6 9.7 0.00 0.00 0.00 62 1016.0
20260830222931 28 162 3.2 9.7 0.00 0.00 0.00 62 1016.0
20260830222835 28 157 3.2 9.7 0.00 0.00 0.00 62 1016.0
20260830222734 28 158 4.8 9.7 0.00 0.00 0.00 62 1016.2
20260830222654 28 162 4.8 9.7 0.00 0.00 0.00 62 1016.2
20260830222531 28 168 6.4 9.7 0.00 0.00 0.00 63 1016.2
20260830222429 28 172 3.2 9.7 0.00 0.00 0.00 63 1016.2
20260830222330 28 171 6.4 9.7 0.00 0.00 0.00 63 1016.2
20260830222228 28 176 4.8 9.7 0.00 0.00 0.00 63 1016.2
20260830222133 28 182 4.8 9.7 0.00 0.00 0.00 63 1016.2
20260830222053 28 184 3.2 9.7 0.00 0.00 0.00 63 1016.2
20260830221930 28 189 1.6 9.7 0.00 0.00 0.00 62 1016.2
20260830221828 28 188 0.0 9.7 0.00 0.00 0.00 63 1016.2
20260830221747 28 191 4.8 9.7 0.00 0.00 0.00 62 1016.2
20260830221657 28 192 4.8 9.7 0.00 0.00 0.00 62 1016.2
20260830221534 28 179 1.6 9.7 0.00 0.00 0.00 62 1016.2
20260830221433 28 182 4.8 9.7 0.00 0.00 0.00 62 1016.2
20260830221336 28 178 4.8 6.4 0.00 0.00 0.00 62 1016.2
20260830221235 28 182 3.2 9.7 0.00 0.00 0.00 62 1016.2
20260830221137 28 182 0.0 9.7 0.00 0.00 0.00 62 1016.2
20260830221035 28 182 1.6 9.7 0.00 0.00 0.00 62 1016.2
20260830220954 28 164 1.6 9.7 0.00 0.00 0.00 61 1016.2
20260830220831 28 154 0.0 9.7 0.00 0.00 0.00 61 1016.2
20260830220729 28 154 1.6 9.7 0.00 0.00 0.00 60 1016.2
20260830220650 28 151 0.0 11.3 0.00 0.00 0.00 61 1016.2
20260830220531 28 151 1.6 14.5 0.00 0.00 0.00 61 1016.2
20260830220430 28 154 3.2 14.5 0.00 0.00 0.00 62 1016.2
20260830220329 28 152 4.8 14.5 0.00 0.00 0.00 62 1016.2
20260830220229 28 150 6.4 14.5 0.00 0.00 0.00 62 1016.2
20260830220200 28 144 6.4 14.5 0.00 0.00 0.00 62 1016.2
20260830220055 28 196 1.6 14.5 0.00 0.00 0.00 62 1016.2
20260830215937 28 196 1.6 14.5 0.00 0.00 0.00 62 1016.2
20260830215838 28 193 8.0 14.5 0.00 0.00 0.00 62 1016.2
20260830215740 28 213 9.7 14.5 0.00 0.00 0.00 62 1016.3
20260830215639 28 210 8.0 14.5 0.00 0.00 0.00 61 1016.3
20260830215538 28 147 1.6 11.3 0.00 0.00 0.00 61 1016.3
20260830215437 28 144 1.6 11.3 0.00 0.00 0.00 61 1016.3
20260830215336 28 145 3.2 11.3 0.00 0.00 0.00 62 1016.3
20260830215254 28 143 4.8 11.3 0.00 0.00 0.00 62 1016.3
20260830215152 28 143 3.2 11.3 0.00 0.00 0.00 62 1016.3
20260830215050 28 141 3.2 11.3 0.00 0.00 0.00 62 1016.3
20260830214947 28 127 8.0 11.3 0.00 0.00 0.00 62 1016.3
20260830214828 28 152 4.8 9.7 0.00 0.00 0.00 61 1016.3
20260830214727 28 158 3.2 9.7 0.00 0.00 0.00 61 1016.3
20260830214657 28 151 3.2 9.7 0.00 0.00 0.00 61 1016.3
20260830214536 28 148 6.4 9.7 0.00 0.00 0.00 61 1016.3
20260830214434 28 191 1.6 9.7 0.00 0.00 0.00 61 1016.3
20260830214354 28 193 3.2 9.7 0.00 0.00 0.00 62 1016.3
20260830214233 28 192 1.6 9.7 0.00 0.00 0.00 61 1016.1
20260830214136 28 192 0.0 9.7 0.00 0.00 0.00 61 1016.1
20260830214035 28 189 1.6 9.7 0.00 0.00 0.00 61 1016.1
20260830213934 28 193 3.2 9.7 0.00 0.00 0.00 62 1016.1
20260830213834 28 193 1.6 9.7 0.00 0.00 0.00 62 1016.1
20260830213733 28 192 1.6 9.7 0.00 0.00 0.00 61 1016.1
20260830213633 28 192 3.2 11.3 0.00 0.00 0.00 62 1016.1
20260830213532 28 178 4.8 11.3 0.00 0.00 0.00 62 1016.1
20260830213435 28 174 4.8 11.3 0.00 0.00 0.00 63 1016.1
20260830213335 28 200 1.6 11.3 0.00 0.00 0.00 63 1016.1
20260830213254 28 205 0.0 11.3 0.00 0.00 0.00 62 1016.1
20260830213204 28 202 1.6 11.3 0.00 0.00 0.00 62 1016.1
20260830213041 28 199 1.6 11.3 0.00 0.00 0.00 62 1016.1
20260830212939 28 196 4.8 11.3 0.00 0.00 0.00 62 1016.1
20260830212836 28 212 9.7 11.3 0.00 0.00 0.00 62 1016.1
20260830212738 28 196 6.4 11.3 0.00 0.00 0.00 62 1016.3
20260830212637 28 167 1.6 9.7 0.00 0.00 0.00 62 1016.3
20260830212536 28 161 3.2 11.3 0.00 0.00 0.00 62 1016.3
20260830212435 28 164 0.0 11.3 0.00 0.00 0.00 62 1016.3
20260830212334 28 164 4.8 11.3 0.00 0.00 0.00 62 1016.3
20260830212232 28 169 3.2 11.3 0.00 0.00 0.00 61 1016.3
20260830212131 28 213 1.6 11.3 0.00 0.00 0.00 61 1016.3
20260830212033 28 215 4.8 11.3 0.00 0.00 0.00 62 1016.3
20260830211933 28 208 3.2 11.3 0.00 0.00 0.00 62 1016.3
20260830211831 28 203 3.2 11.3 0.00 0.00 0.00 61 1016.3
20260830211730 28 226 3.2 11.3 0.00 0.00 0.00 61 1016.3
20260830211700 28 210 4.8 11.3 0.00 0.00 0.00 62 1016.3
20260830211539 28 196 4.8 11.3 0.00 0.00 0.00 62 1016.3
20260830211437 28 200 3.2 11.3 0.00 0.00 0.00 62 1016.3
20260830211341 28 209 3.2 11.3 0.00 0.00 0.00 61 1016.3
20260830211238 28 155 4.8 11.3 0.00 0.00 0.00 61 1016.4
20260830211139 28 155 4.8 11.3 0.00 0.00 0.00 60 1016.4
20260830211039 28 157 3.2 11.3 0.00 0.00 0.00 60 1016.4
20260830210937 28 155 4.8 11.3 0.00 0.00 0.00 60 1016.4
20260830210837 28 128 6.4 11.3 0.00 0.00 0.00 60 1016.4
20260830210739 28 119 6.4 11.3 0.00 0.00 0.00 62 1016.4
20260830210638 28 124 6.4 11.3 0.00 0.00 0.00 63 1016.4
20260830210558 28 116 3.2 12.9 0.00 0.00 0.00 62 1016.4
20260830210435 28 109 3.2 12.9 0.00 0.00 0.00 62 1016.4
20260830210355 28 107 3.2 12.9 0.00 0.00 0.00 61 1016.4
20260830210253 28 113 3.2 12.9 0.00 0.00 0.00 62 1016.4
20260830210203 28 107 3.2 12.9 0.00 0.00 0.00 62 1016.4
20260830210039 28 110 3.2 12.9 0.00 0.00 0.00 62 1016.4
20260830205958 28 175 4.8 12.9 0.00 0.00 0.00 62 1016.4
20260830205840 28 208 4.8 12.9 0.00 0.00 0.00 63 1016.4
20260830205739 28 195 6.4 12.9 0.00 0.00 0.00 62 1016.5
20260830205637 28 198 1.6 12.9 0.00 0.00 0.00 62 1016.5
20260830205556 28 199 0.0 12.9 0.00 0.00 0.00 62 1016.5
20260830205433 28 196 3.2 12.9 0.00 0.00 0.00 61 1016.5
20260830205332 28 195 0.0 12.9 0.00 0.00 0.00 61 1016.5
20260830205232 28 196 3.2 12.9 0.00 0.00 0.00 61 1016.5
20260830205127 28 192 6.4 12.9 0.00 0.00 0.00 61 1016.5
20260830205050 28 186 3.2 12.9 0.00 0.00 0.00 61 1016.5
20260830204948 28 196 6.4 12.9 0.00 0.00 0.00 60 1016.5
20260830204826 28 189 4.8 9.7 0.00 0.00 0.00 60 1016.5
20260830204725 28 181 3.2 11.3 0.00 0.00 0.00 60 1016.5
20260830204654 28 179 3.2 11.3 0.00 0.00 0.00 61 1016.5
20260830204533 28 178 4.8 11.3 0.00 0.00 0.00 62 1016.5
20260830204431 28 195 4.8 11.3 0.00 0.00 0.00 61 1016.5
20260830204349 28 88 4.8 11.3 0.00 0.00 0.00 61 1016.5
20260830204226 28 51 4.8 12.9 0.00 0.00 0.00 61 1016.8
20260830204148 28 48 3.2 12.9 0.00 0.00 0.00 60 1016.8
20260830204046 28 49 0.0 12.9 0.00 0.00 0.00 61 1016.8
20260830203943 28 49 3.2 12.9 0.00 0.00 0.00 61 1016.8
20260830203841 28 49 4.8 12.9 0.00 0.00 0.00 60 1016.8
20260830203740 28 114 4.8 12.9 0.00 0.00 0.00 60 1016.8
20260830203638 28 114 4.8 12.9 0.00 0.00 0.00 61 1016.8
20260830203534 28 109 6.4 12.9 0.00 0.00 0.00 61 1016.8
20260830203453 28 97 9.7 12.9 0.00 0.00 0.00 62 1016.8
20260830203350 28 141 4.8 9.7 0.00 0.00 0.00 62 1016.8
20260830203231 28 203 1.6 9.7 0.00 0.00 0.00 62 1016.8
20260830203202 28 202 1.6 9.7 0.00 0.00 0.00 62 1016.8
20260830203100 28 202 4.8 9.7 0.00 0.00 0.00 62 1016.8
20260830202938 28 133 0.0 8.0 0.00 0.00 0.00 61 1016.8
20260830202835 28 134 1.6 8.0 0.00 0.00 0.00 62 1016.8
20260830202734 28 134 3.2 9.7 0.00 0.00 0.00 62 1016.8
20260830202653 28 92 0.0 9.7 0.00 0.00 0.00 62 1016.8
20260830202531 28 89 0.0 9.7 0.00 0.00 0.00 61 1016.8
20260830202433 28 90 0.0 9.7 0.00 0.00 0.00 60 1016.8
20260830202332 28 92 0.0 12.9 0.00 0.00 0.00 60 1016.8
20260830202231 28 92 1.6 12.9 0.00 0.00 0.00 60 1016.8
20260830202150 28 90 3.2 12.9 0.00 0.00 0.00 59 1016.8
20260830202028 28 89 1.6 12.9 0.00 0.00 0.00 59 1016.8
20260830201926 28 90 4.8 12.9 0.00 0.00 0.00 60 1016.8
20260830201843 28 86 4.8 12.9 0.00 0.00 0.00 60 1016.8
20260830201754 28 96 0.0 12.9 0.00 0.00 0.00 59 1016.8
20260830201646 28 96 4.8 12.9 0.00 0.00 0.00 59 1016.8
20260830201543 28 96 8.0 12.9 0.00 0.00 0.00 60 1016.8
20260830201444 28 76 8.0 11.3 0.00 0.00 0.00 61 1016.8
20260830201343 28 110 8.0 11.3 0.00 0.00 0.00 61 1016.8
20260830201301 28 110 4.8 11.3 0.00 0.00 0.00 61 1017.0
20260830201159 28 172 0.0 11.3 0.00 0.00 0.00 60 1017.0
20260830201056 28 175 0.0 11.3 0.00 0.00 0.00 59 1017.0
20260830200934 28 174 0.0 11.3 0.00 0.00 0.00 60 1017.0
20260830200834 28 175 0.0 11.3 0.00 0.00 0.00 61 1017.0
20260830200736 28 175 1.6 11.3 0.00 0.00 0.00 62 1017.0
20260830200640 28 175 6.4 11.3 0.00 0.00 0.00 62 1017.0
20260830200538 28 162 3.2 11.3 0.00 0.00 0.00 62 1017.0
20260830200436 28 119 4.8 9.7 0.00 0.00 0.00 61 1017.0
20260830200354 28 116 6.4 9.7 0.00 0.00 0.00 60 1017.0
20260830200232 28 113 3.2 9.7 0.00 0.00 0.00 60 1017.0
20260830200202 28 110 1.6 9.7 0.00 0.00 0.00 60 1017.0
20260830200037 28 112 1.6 9.7 0.00 0.00 0.00 59 1017.0
20260830195939 28 113 0.0 9.7 0.00 0.00 0.00 59 1017.0
20260830195838 28 113 3.2 11.3 0.00 0.00 0.00 60 1017.0
20260830195757 28 112 6.4 11.3 0.00 0.00 0.00 59 1017.2
20260830195655 28 112 3.2 11.3 0.00 0.00 0.00 60 1017.2
20260830195553 28 110 4.8 11.3 0.00 0.00 0.00 60 1017.2
20260830195432 28 106 1.6 11.3 0.00 0.00 0.00 59 1017.2
20260830195350 28 106 1.6 11.3 0.00 0.00 0.00 60 1017.2
20260830195229 28 106 0.0 11.3 0.00 0.00 0.00 60 1017.2
20260830195128 28 106 0.0 12.9 0.00 0.00 0.00 60 1017.2
20260830195031 28 104 6.4 12.9 0.00 0.00 0.00 61 1017.2
20260830194931 28 127 6.4 12.9 0.00 0.00 0.00 60 1017.2
20260830194829 28 168 6.4 12.9 0.00 0.00 0.00 60 1017.2
20260830194728 28 148 8.0 12.9 0.00 0.00 0.00 59 1017.2
20260830194658 28 157 8.0 12.9 0.00 0.00 0.00 59 1017.2
20260830194555 28 144 8.0 12.9 0.00 0.00 0.00 60 1017.2
20260830194457 28 134 8.0 12.9 0.00 0.00 0.00 61 1017.2
20260830194336 28 157 9.7 12.9 0.00 0.00 0.00 62 1017.2
20260830194239 28 155 8.0 12.9 0.00 0.00 0.00 62 1017.2
20260830194139 28 199 3.2 11.3 0.00 0.00 0.00 62 1017.2
20260830194038 28 203 1.6 9.7 0.00 0.00 0.00 61 1017.2
20260830193937 28 200 1.6 9.7 0.00 0.00 0.00 61 1017.2
20260830193835 28 157 1.6 9.7 0.00 0.00 0.00 60 1017.2
20260830193733 28 150 6.4 9.7 0.00 0.00 0.00 62 1017.2
20260830193636 28 152 4.8 9.7 0.00 0.00 0.00 61 1017.2
20260830193555 28 158 3.2 9.7 0.00 0.00 0.00 61 1017.2
20260830193453 28 164 3.2 9.7 0.00 0.00 0.00 60 1017.2
20260830193331 28 161 6.4 9.7 0.00 0.00 0.00 59 1017.2
20260830193241 28 145 1.6 9.7 0.00 0.00 0.00 59 1017.2
20260830193151 28 144 1.6 9.7 0.00 0.00 0.00 61 1017.2
20260830193047 28 143 3.2 9.7 0.00 0.00 0.00 61 1017.2
20260830192944 29 141 3.2 9.7 0.00 0.00 0.00 61 1017.2
20260830192841 29 140 1.6 11.3 0.00 0.00 0.00 61 1017.2
20260830192739 29 137 3.2 12.9 0.00 0.00 0.00 61 1017.4
20260830192643 29 133 3.2 12.9 0.00 0.00 0.00 60 1017.4
20260830192541 29 131 6.4 12.9 0.00 0.00 0.00 60 1017.4
20260830192438 29 143 4.8 12.9 0.00 0.00 0.00 62 1017.4
20260830192336 29 136 4.8 12.9 0.00 0.00 0.00 59 1017.4
20260830192255 29 104 4.8 12.9 0.00 0.00 0.00 58 1017.4
20260830192153 29 103 6.4 12.9 0.00 0.00 0.00 58 1017.4
20260830192033 29 95 6.4 12.9 0.00 0.00 0.00 59 1017.4
20260830191951 29 95 8.0 12.9 0.00 0.00 0.00 59 1017.4
20260830191833 29 79 3.2 12.9 0.00 0.00 0.00 60 1017.4
20260830191753 29 158 1.6 12.9 0.00 0.00 0.00 60 1017.4
20260830191702 29 158 3.2 12.9 0.00 0.00 0.00 60 1017.4
20260830191538 29 151 1.6 12.9 0.00 0.00 0.00 60 1017.4
20260830191457 29 152 3.2 12.9 0.00 0.00 0.00 59 1017.4
20260830191355 29 141 4.8 12.9 0.00 0.00 0.00 60 1017.4
20260830191232 29 138 8.0 12.9 0.00 0.00 0.00 60 1017.4
20260830191132 29 136 9.7 12.9 0.00 0.00 0.00 60 1017.4
20260830191029 29 116 9.7 14.5 0.00 0.00 0.00 59 1017.4
20260830190931 29 154 4.8 14.5 0.00 0.00 0.00 60 1017.4
20260830190831 29 150 9.7 14.5 0.00 0.00 0.00 61 1017.4
20260830190729 29 157 4.8 14.5 0.00 0.00 0.00 61 1017.4
20260830190628 29 189 4.8 14.5 0.00 0.00 0.00 61 1017.4
20260830190528 29 185 4.8 14.5 0.00 0.00 0.00 60 1017.4
20260830190427 29 154 4.8 14.5 0.00 0.00 0.00 60 1017.4
20260830190329 29 168 6.4 14.5 0.00 0.00 0.00 60 1017.4
20260830190229 29 178 3.2 14.5 0.00 0.00 0.00 61 1017.4
20260830190158 29 178 1.6 14.5 0.00 0.00 0.00 61 1017.4
20260830190035 29 42 1.6 14.5 0.00 0.00 0.00 61 1017.4
20260830185933 29 41 3.2 14.5 0.00 0.00 0.00 61 1017.4
20260830185832 29 80 3.2 16.1 0.00 0.00 0.00 60 1017.4
20260830185729 29 80 9.7 16.1 0.00 0.00 0.00 60 1017.6
20260830185647 29 158 1.6 16.1 0.00 0.00 0.00 60 1017.6
20260830185529 29 160 1.6 16.1 0.00 0.00 0.00 59 1017.6
20260830185428 29 154 4.8 16.1 0.00 0.00 0.00 61 1017.6
20260830185326 29 131 8.0 16.1 0.00 0.00 0.00 61 1017.6
20260830185228 29 120 9.7 16.1 0.00 0.00 0.00 62 1017.6
20260830185129 29 181 9.7 16.1 0.00 0.00 0.00 60 1017.6
20260830185029 29 210 9.7 16.1 0.00 0.00 0.00 61 1017.6
20260830184927 29 150 8.0 12.9 0.00 0.00 0.00 61 1017.6
20260830184831 29 162 8.0 12.9 0.00 0.00 0.00 61 1017.6
20260830184740 29 182 8.0 12.9 0.00 0.00 0.00 62 1017.6
20260830184649 29 114 8.0 12.9 0.00 0.00 0.00 61 1017.6
20260830184527 29 124 9.7 12.9 0.00 0.00 0.00 62 1017.6
20260830184425 29 185 6.4 12.9 0.00 0.00 0.00 60 1017.6
20260830184343 29 96 3.2 12.9 0.00 0.00 0.00 59 1017.6
20260830184302 29 116 6.4 12.9 0.00 0.00 0.00 59 1017.9
20260830184159 29 127 4.8 12.9 0.00 0.00 0.00 58 1017.9
20260830184037 29 110 0.0 12.9 0.00 0.00 0.00 58 1017.9
20260830183940 29 109 3.2 12.9 0.00 0.00 0.00 59 1017.9
20260830183839 29 110 6.4 12.9 0.00 0.00 0.00 61 1017.9
20260830183739 29 123 4.8 11.3 0.00 0.00 0.00 59 1017.9
20260830183639 29 124 3.2 12.9 0.00 0.00 0.00 60 1017.9
20260830183536 29 114 3.2 12.9 0.00 0.00 0.00 61 1017.9
20260830183454 29 184 3.2 12.9 0.00 0.00 0.00 62 1017.9
20260830183331 29 184 3.2 12.9 0.00 0.00 0.00 62 1017.9
20260830183204 29 202 1.6 12.9 0.00 0.00 0.00 61 1017.9
20260830183101 29 164 4.8 12.9 0.00 0.00 0.00 61 1017.9
20260830182938 29 168 6.4 12.9 0.00 0.00 0.00 61 1017.9
20260830182837 29 162 8.0 12.9 0.00 0.00 0.00 60 1017.9
20260830182734 29 145 8.0 12.9 0.00 0.00 0.00 60 1018.1
20260830182632 29 147 6.4 12.9 0.00 0.00 0.00 61 1018.1
20260830182549 29 148 6.4 12.9 0.00 0.00 0.00 62 1018.1
20260830182432 29 130 8.0 12.9 0.00 0.00 0.00 62 1018.1
20260830182331 29 150 6.4 12.9 0.00 0.00 0.00 62 1018.1
20260830182229 29 202 4.8 12.9 0.00 0.00 0.00 62 1018.1
20260830182129 29 160 1.6 12.9 0.00 0.00 0.00 62 1018.1
20260830182029 29 136 3.2 16.1 0.00 0.00 0.00 61 1018.1
20260830181926 29 130 9.7 16.1 0.00 0.00 0.00 61 1018.1
20260830181825 29 133 6.4 16.1 0.00 0.00 0.00 62 1018.1
20260830181738 29 136 6.4 16.1 0.00 0.00 0.00 62 1018.1
20260830181647 29 145 4.8 16.1 0.00 0.00 0.00 61 1018.1
20260830181524 29 188 4.8 16.1 0.00 0.00 0.00 63 1018.1
20260830181442 29 184 6.4 16.1 0.00 0.00 0.00 63 1018.1
20260830181341 29 200 6.4 16.1 0.00 0.00 0.00 63 1018.1
20260830181300 29 158 6.4 16.1 0.00 0.00 0.00 62 1018.3
20260830181137 29 117 4.8 16.1 0.00 0.00 0.00 62 1018.3
20260830181034 29 158 8.0 14.5 0.00 0.00 0.00 63 1018.3
20260830180954 29 181 6.4 14.5 0.00 0.00 0.00 63 1018.3
20260830180832 29 152 6.4 14.5 0.00 0.00 0.00 62 1018.3
20260830180734 29 138 8.0 14.5 0.00 0.00 0.00 61 1018.3
20260830180633 29 92 8.0 14.5 0.00 0.00 0.00 60 1018.3
20260830180532 29 119 1.6 14.5 0.00 0.00 0.00 61 1018.3
20260830180451 29 120 1.6 14.5 0.00 0.00 0.00 62 1018.3
20260830180328 29 120 4.8 14.5 0.00 0.00 0.00 62 1018.3
20260830180238 29 106 6.4 14.5 0.00 0.00 0.00 64 1018.3
20260830180147 29 93 6.4 19.3 0.00 0.00 0.00 63 1018.3
20260830180028 29 85 9.7 19.3 0.00 0.00 0.00 62 1018.3
20260830175927 28 80 6.4 19.3 0.00 0.00 0.00 62 1018.3
20260830175825 28 116 4.8 19.3 0.00 0.00 0.00 62 1018.3
20260830175742 28 114 3.2 19.3 0.00 0.00 0.00 62 1018.5
20260830175641 28 120 4.8 19.3 0.00 0.00 0.00 62 1018.5
20260830175540 28 114 4.8 19.3 0.00 0.00 0.00 62 1018.5
20260830175459 28 130 4.8 19.3 0.00 0.00 0.00 61 1018.5
20260830175335 28 127 9.7 19.3 0.00 0.00 0.00 61 1018.5
20260830175239 28 134 11.3 19.3 0.00 0.00 0.00 62 1018.5
20260830175139 28 114 6.4 14.5 0.00 0.00 0.00 62 1018.5
20260830175037 28 144 9.7 14.5 0.00 0.00 0.00 64 1018.5
20260830174934 28 136 8.0 14.5 0.00 0.00 0.00 62 1018.5
20260830174833 28 76 4.8 12.9 0.00 0.00 0.00 63 1018.5
20260830174731 28 51 1.6 12.9 0.00 0.00 0.00 62 1018.5
20260830174700 28 51 3.2 12.9 0.00 0.00 0.00 62 1018.5
20260830174542 28 51 9.7 12.9 0.00 0.00 0.00 65 1018.5
20260830174442 28 116 6.4 16.1 0.00 0.00 0.00 66 1018.5
20260830174340 28 171 6.4 16.1 0.00 0.00 0.00 66 1018.5
20260830174239 28 191 4.8 16.1 0.00 0.00 0.00 66 1018.6
20260830174159 28 113 4.8 16.1 0.00 0.00 0.00 65 1018.6
20260830174036 28 113 8.0 16.1 0.00 0.00 0.00 65 1018.6
20260830173934 28 99 6.4 16.1 0.00 0.00 0.00 65 1018.6
20260830173836 28 195 6.4 16.1 0.00 0.00 0.00 65 1018.6
20260830173736 28 121 9.7 17.7 0.00 0.00 0.00 62 1018.6
20260830173632 28 112 9.7 19.3 0.00 0.00 0.00 63 1018.6
20260830173530 28 116 6.4 19.3 0.00 0.00 0.00 64 1018.6
20260830173425 28 161 6.4 19.3 0.00 0.00 0.00 64 1018.6
20260830173346 28 215 3.2 19.3 0.00 0.00 0.00 65 1018.6
20260830173227 28 216 4.8 19.3 0.00 0.00 0.00 64 1018.6
20260830173157 28 216 3.2 19.3 0.00 0.00 0.00 65 1018.6
20260830173037 28 217 6.4 19.3 0.00 0.00 0.00 65 1018.6
20260830172936 28 219 11.3 20.9 0.00 0.00 0.00 64 1018.6
20260830172856 28 124 14.5 20.9 0.00 0.00 0.00 64 1018.6
20260830172734 28 119 11.3 20.9 0.00 0.00 0.00 65 1018.9
20260830172632 28 151 6.4 20.9 0.00 0.00 0.00 66 1018.9
20260830172531 28 133 8.0 20.9 0.00 0.00 0.00 65 1018.9
20260830172430 28 106 8.0 20.9 0.00 0.00 0.00 64 1018.9
20260830172333 28 123 8.0 20.9 0.00 0.00 0.00 63 1018.9
20260830172253 28 96 8.0 20.9 0.00 0.00 0.00 65 1018.9
20260830172150 28 137 14.5 20.9 0.00 0.00 0.00 64 1018.9
20260830172029 28 99 9.7 20.9 0.00 0.00 0.00 64 1018.9
20260830171928 28 82 1.6 20.9 0.00 0.00 0.00 63 1018.9
20260830171826 28 78 4.8 20.9 0.00 0.00 0.00 64 1018.9
20260830171746 28 79 4.8 20.9 0.00 0.00 0.00 64 1018.9
20260830171716 28 86 1.6 20.9 0.00 0.00 0.00 64 1018.9
20260830171532 28 116 4.8 20.9 0.00 0.00 0.00 64 1018.9
20260830171436 28 131 3.2 20.9 0.00 0.00 0.00 65 1018.9
20260830171333 28 128 8.0 20.9 0.00 0.00 0.00 64 1018.9
20260830171253 28 121 8.0 20.9 0.00 0.00 0.00 64 1018.9
20260830171130 28 88 6.4 17.7 0.00 0.00 0.00 65 1018.9
20260830171051 28 106 6.4 17.7 0.00 0.00 0.00 64 1018.9
20260830170928 28 113 4.8 17.7 0.00 0.00 0.00 64 1018.9
20260830170826 28 157 3.2 20.9 0.00 0.00 0.00 65 1018.9
20260830170745 28 152 6.4 20.9 0.00 0.00 0.00 66 1018.9
20260830170630 28 172 4.8 20.9 0.00 0.00 0.00 66 1018.9
20260830170549 28 96 8.0 20.9 0.00 0.00 0.00 65 1018.9
20260830170426 28 110 12.9 20.9 0.00 0.00 0.00 63 1018.9
20260830170326 28 110 6.4 20.9 0.00 0.00 0.00 64 1018.9
20260830170236 28 89 9.7 20.9 0.00 0.00 0.00 64 1018.9
20260830170146 28 106 12.9 20.9 0.00 0.00 0.00 65 1018.9
20260830170043 28 110 16.1 20.9 0.00 0.00 0.00 66 1018.9
20260830165940 28 127 9.7 14.5 0.00 0.00 0.00 66 1018.9
20260830165843 28 162 8.0 19.3 0.00 0.00 0.00 67 1018.9
20260830165742 28 124 6.4 19.3 0.00 0.00 0.00 67 1019.1
20260830165641 28 162 4.8 19.3 0.00 0.00 0.00 68 1019.1
20260830165539 28 158 8.0 19.3 0.00 0.00 0.00 67 1019.1
20260830165437 28 151 9.7 19.3 0.00 0.00 0.00 67 1019.1
20260830165334 28 136 6.4 19.3 0.00 0.00 0.00 67 1019.1
20260830165233 28 130 6.4 19.3 0.00 0.00 0.00 67 1019.1
20260830165132 28 109 8.0 19.3 0.00 0.00 0.00 67 1019.1
20260830165034 28 121 12.9 19.3 0.00 0.00 0.00 68 1019.1
20260830164932 28 124 3.2 17.7 0.00 0.00 0.00 68 1019.1
20260830164832 28 162 8.0 17.7 0.00 0.00 0.00 68 1019.1
20260830164751 27 181 6.4 17.7 0.00 0.00 0.00 68 1019.1
20260830164700 27 193 6.4 17.7 0.00 0.00 0.00 68 1019.1
20260830164538 27 75 4.8 17.7 0.00 0.00 0.00 67 1019.1
20260830164438 27 75 8.0 17.7 0.00 0.00 0.00 67 1019.1
20260830164340 27 80 6.4 16.1 0.00 0.00 0.00 68 1019.1
20260830164239 27 96 9.7 16.1 0.00 0.00 0.00 68 1019.2
20260830164136 27 136 11.3 20.9 0.00 0.00 0.00 67 1019.2
20260830164034 27 109 8.0 20.9 0.00 0.00 0.00 68 1019.2
20260830163952 27 109 4.8 20.9 0.00 0.00 0.00 68 1019.2
20260830163849 27 107 8.0 20.9 0.00 0.00 0.00 68 1019.2
20260830163728 27 151 3.2 20.9 0.00 0.00 0.00 67 1019.2
20260830163626 27 151 1.6 20.9 0.00 0.00 0.00 68 1019.2
20260830163531 27 151 9.7 20.9 0.00 0.00 0.00 69 1019.2
20260830163430 27 169 8.0 20.9 0.00 0.00 0.00 69 1019.2
20260830163349 27 90 14.5 20.9 0.00 0.00 0.00 69 1019.2
20260830163227 27 73 4.8 11.3 0.00 0.00 0.00 69 1019.2
20260830163157 27 100 6.4 11.3 0.00 0.00 0.00 70 1019.2
20260830163035 27 114 6.4 11.3 0.00 0.00 0.00 69 1019.2
20260830162933 27 126 6.4 11.3 0.00 0.00 0.00 70 1019.2
20260830162832 27 126 3.2 14.5 0.00 0.00 0.00 69 1019.2
20260830162734 27 144 3.2 14.5 0.00 0.00 0.00 69 1019.3
20260830162632 27 138 1.6 14.5 0.00 0.00 0.00 70 1019.3
20260830162531 27 137 8.0 14.5 0.00 0.00 0.00 70 1019.3
20260830162430 27 124 4.8 14.5 0.00 0.00 0.00 69 1019.3
20260830162350 27 120 3.2 14.5 0.00 0.00 0.00 69 1019.3
20260830162228 27 119 8.0 14.5 0.00 0.00 0.00 70 1019.3
20260830162127 27 116 8.0 14.5 0.00 0.00 0.00 71 1019.3
20260830162030 27 99 9.7 14.5 0.00 0.00 0.00 71 1019.3
20260830161929 27 141 4.8 17.7 0.00 0.00 0.00 71 1019.3
20260830161828 27 196 4.8 17.7 0.00 0.00 0.00 71 1019.3
20260830161727 27 192 4.8 17.7 0.00 0.00 0.00 71 1019.3
20260830161656 27 179 3.2 17.7 0.00 0.00 0.00 71 1019.3
20260830161431 27 96 4.8 17.7 0.00 0.00 0.00 71 1019.3
20260830161333 27 97 8.0 17.7 0.00 0.00 0.00 71 1019.3
20260830161231 27 85 6.4 17.7 0.00 0.00 0.00 71 1019.4
20260830161132 27 107 11.3 17.7 0.00 0.00 0.00 71 1019.4
20260830161029 27 126 12.9 16.1 0.00 0.00 0.00 71 1019.4
20260830160929 27 103 4.8 12.9 0.00 0.00 0.00 72 1019.4
20260830160828 27 191 3.2 12.9 0.00 0.00 0.00 72 1019.4
20260830160731 27 143 6.4 16.1 0.00 0.00 0.00 72 1019.4
20260830160631 27 117 6.4 16.1 0.00 0.00 0.00 73 1019.4
20260830160530 27 106 6.4 16.1 0.00 0.00 0.00 72 1019.4
20260830160429 27 76 9.7 16.1 0.00 0.00 0.00 73 1019.4
20260830160326 27 83 6.4 16.1 0.00 0.00 0.00 73 1019.4
20260830160225 27 141 6.4 16.1 0.00 0.00 0.00 73 1019.4
20260830160155 27 137 9.7 16.1 0.00 0.00 0.00 73 1019.4
20260830160033 26 195 6.4 16.1 0.00 0.00 0.00 73 1019.4
20260830155938 26 124 6.4 16.1 0.00 0.00 0.00 73 1019.4
20260830155837 26 116 8.0 16.1 0.00 0.00 0.00 72 1019.4
20260830155734 26 124 1.6 16.1 0.00 0.00 0.00 72 1019.4
20260830155633 26 123 3.2 16.1 0.00 0.00 0.00 72 1019.4
20260830155532 26 117 8.0 16.1 0.00 0.00 0.00 72 1019.4
20260830155432 26 127 8.0 16.1 0.00 0.00 0.00 71 1019.4
20260830155334 26 116 6.4 16.1 0.00 0.00 0.00 71 1019.4
20260830155235 26 113 9.7 16.1 0.00 0.00 0.00 72 1019.4
20260830155134 26 136 11.3 16.1 0.00 0.00 0.00 72 1019.4
20260830155031 26 110 11.3 16.1 0.00 0.00 0.00 73 1019.4
20260830154930 26 124 11.3 16.1 0.00 0.00 0.00 73 1019.4
20260830154829 26 128 11.3 20.9 0.00 0.00 0.00 74 1019.4
20260830154739 26 112 11.3 20.9 0.00 0.00 0.00 73 1019.4
20260830154650 26 134 11.3 20.9 0.00 0.00 0.00 74 1019.4
20260830154528 26 95 9.7 20.9 0.00 0.00 0.00 74 1019.4
20260830154448 26 157 6.4 20.9 0.00 0.00 0.00 74 1019.4
20260830154325 26 151 1.6 20.9 0.00 0.00 0.00 74 1019.4
20260830154226 26 151 1.6 20.9 0.00 0.00 0.00 75 1019.5
20260830154145 26 148 9.7 20.9 0.00 0.00 0.00 75 1019.5
20260830154026 26 152 14.5 20.9 0.00 0.00 0.00 75 1019.5
20260830153926 26 134 9.7 17.7 0.00 0.00 0.00 74 1019.5
20260830153829 26 104 8.0 17.7 0.00 0.00 0.00 74 1019.5
20260830153747 26 145 4.8 20.9 0.00 0.00 0.00 76 1019.5
20260830153626 26 134 11.3 20.9 0.00 0.00 0.00 76 1019.5
20260830153524 26 137 8.0 20.9 0.00 0.00 0.00 76 1019.5
20260830153444 26 127 8.0 20.9 0.00 0.00 0.00 76 1019.5
20260830153341 26 107 4.8 20.9 0.00 0.00 0.00 77 1019.5
20260830153240 26 100 9.7 20.9 0.00 0.00 0.00 77 1019.5
20260830153210 26 127 6.4 20.9 0.00 0.00 0.00 77 1019.5
20260830153030 26 168 9.7 20.9 0.00 0.00 0.00 77 1019.5
20260830152928 26 107 11.3 20.9 0.00 0.00 0.00 76 1019.5
20260830152825 26 126 6.4 16.1 0.00 0.00 0.00 78 1019.5
20260830152743 26 96 4.8 16.1 0.00 0.00 0.00 78 1019.4
20260830152641 26 86 3.2 16.1 0.00 0.00 0.00 79 1019.4
20260830152540 26 83 4.8 16.1 0.00 0.00 0.00 78 1019.4
20260830152459 26 78 9.7 16.1 0.00 0.00 0.00 78 1019.4
20260830152357 25 76 9.7 16.1 0.00 0.00 0.00 80 1019.4
20260830152233 25 86 4.8 16.1 0.00 0.00 0.00 80 1019.4
20260830152135 25 136 9.7 16.1 0.00 0.00 0.00 80 1019.4
20260830152034 25 113 9.7 16.1 0.00 0.00 0.00 80 1019.4
20260830151931 25 127 4.8 16.1 0.00 0.00 0.00 80 1019.4
20260830151851 25 128 3.2 16.1 0.00 0.00 0.00 80 1019.4
20260830151747 25 92 8.0 16.1 0.00 0.00 0.00 81 1019.4
20260830151655 25 110 8.0 16.1 0.00 0.00 0.00 81 1019.4
20260830151532 25 143 9.7 16.1 0.00 0.00 0.00 81 1019.4
20260830151430 25 131 9.7 16.1 0.00 0.00 0.00 82 1019.4
20260830151349 25 138 4.8 16.1 0.00 0.00 0.00 82 1019.4
20260830151230 25 133 8.0 16.1 0.00 0.00 0.00 82 1019.4
20260830151129 25 138 1.6 14.5 0.00 0.00 0.00 83 1019.4
20260830151028 25 141 6.4 14.5 0.00 0.00 0.00 83 1019.4
20260830150926 25 66 4.8 14.5 0.00 0.00 0.00 83 1019.4
20260830150843 25 72 9.7 14.5 0.00 0.00 0.00 83 1019.4
20260830150740 25 88 4.8 14.5 0.00 0.00 0.00 84 1019.4
20260830150637 25 168 1.6 14.5 0.00 0.00 0.00 84 1019.4
20260830150438 25 145 8.0 14.5 0.00 0.00 0.00 84 1019.4
20260830150336 25 127 8.0 14.5 0.00 0.00 0.00 84 1019.4
20260830150255 25 175 4.8 9.7 0.00 0.00 0.00 84 1019.4
20260830150205 25 182 4.8 11.3 0.00 0.00 0.00 84 1019.4
20260830150042 25 174 4.8 11.3 0.00 0.00 0.00 84 1019.4
20260830145939 25 168 3.2 11.3 0.00 0.00 0.00 84 1019.4
20260830145838 25 162 3.2 11.3 0.00 0.00 0.00 84 1019.4
20260830145741 25 155 1.6 11.3 0.00 0.00 0.00 84 1019.5
20260830145640 25 155 0.0 11.3 0.00 0.00 0.00 84 1019.5
20260830145538 25 155 1.6 11.3 0.00 0.00 0.00 85 1019.5
20260830145437 25 152 4.8 11.3 0.00 0.00 0.00 85 1019.5
20260830145334 25 154 6.4 11.3 0.00 0.00 0.00 85 1019.5
20260830145232 25 155 4.8 11.3 0.00 0.00 0.00 85 1019.5
20260830145129 24 151 6.4 11.3 0.00 0.00 0.00 85 1019.5
20260830145031 24 186 3.2 11.3 0.00 0.00 0.00 85 1019.5
20260830144933 24 188 3.2 12.9 0.00 0.00 0.00 85 1019.5
20260830144853 24 186 4.8 12.9 0.00 0.00 0.00 85 1019.5
20260830144801 24 188 3.2 12.9 0.00 0.00 0.00 85 1019.5
20260830144650 24 189 3.2 12.9 0.00 0.00 0.00 85 1019.5
20260830144528 24 178 0.0 12.9 0.00 0.00 0.00 85 1019.5
20260830144426 24 178 4.8 12.9 0.00 0.00 0.00 86 1019.5
20260830144346 24 169 8.0 12.9 0.00 0.00 0.00 86 1019.5
20260830144244 24 144 8.0 12.9 0.00 0.00 0.00 86 1019.5
20260830144127 24 138 11.3 12.9 0.00 0.00 0.00 86 1019.5
20260830144026 24 157 8.0 11.3 0.00 0.00 0.00 86 1019.5
20260830143925 24 104 6.4 9.7 0.00 0.00 0.00 86 1019.5
20260830143824 24 162 1.6 9.7 0.00 0.00 0.00 86 1019.5
20260830143742 24 160 1.6 11.3 0.00 0.00 0.00 86 1019.5
20260830143700 24 182 4.8 11.3 0.00 0.00 0.00 86 1019.5
20260830143539 24 165 4.8 11.3 0.00 0.00 0.00 86 1019.5
20260830143457 24 121 1.6 11.3 0.00 0.00 0.00 86 1019.5
20260830143354 24 121 1.6 11.3 0.00 0.00 0.00 86 1019.5
20260830143234 24 120 3.2 11.3 0.00 0.00 0.00 86 1019.5
20260830143205 24 121 4.8 11.3 0.00 0.00 0.00 86 1019.5
20260830143042 23 124 4.8 11.3 0.00 0.00 0.00 86 1019.5
20260830142940 23 123 4.8 11.3 0.00 0.00 0.00 86 1019.5
20260830142840 23 119 8.0 11.3 0.00 0.00 0.00 86 1019.5
20260830142739 23 128 3.2 9.7 0.00 0.00 0.00 86 1019.5
20260830142639 23 130 1.6 9.7 0.00 0.00 0.00 87 1019.5
20260830142541 23 131 3.2 9.7 0.00 0.00 0.00 86 1019.5
20260830142440 23 130 3.2 9.7 0.00 0.00 0.00 86 1019.5
20260830142340 23 130 3.2 11.3 0.00 0.00 0.00 86 1019.5
20260830142238 23 127 3.2 11.3 0.00 0.00 0.00 86 1019.5
20260830142137 23 124 3.2 11.3 0.00 0.00 0.00 86 1019.5
20260830142036 23 127 3.2 12.9 0.00 0.00 0.00 86 1019.5
20260830141935 23 124 6.4 14.5 0.00 0.00 0.00 86 1019.5
20260830141857 23 150 3.2 16.1 0.00 0.00 0.00 86 1019.5
20260830141816 23 158 4.8 16.1 0.00 0.00 0.00 86 1019.5
20260830141726 23 152 4.8 16.1 0.00 0.00 0.00 86 1019.5
20260830141542 23 145 4.8 16.1 0.00 0.00 0.00 86 1019.5
20260830141441 23 121 4.8 16.1 0.00 0.00 0.00 86 1019.5
20260830141341 23 119 3.2 16.1 0.00 0.00 0.00 86 1019.5
20260830141238 23 114 9.7 16.1 0.00 0.00 0.00 87 1019.5
20260830141138 23 121 8.0 16.1 0.00 0.00 0.00 87 1019.5
20260830141041 23 97 6.4 16.1 0.00 0.00 0.00 87 1019.5
20260830140941 23 136 4.8 16.1 0.00 0.00 0.00 87 1019.5
20260830140840 23 137 8.0 16.1 0.00 0.00 0.00 87 1019.5
20260830140736 23 138 8.0 16.1 0.00 0.00 0.00 87 1019.5
20260830140655 23 137 9.7 16.1 0.00 0.00 0.00 87 1019.5
20260830140552 23 141 9.7 16.1 0.00 0.00 0.00 87 1019.5
20260830140428 23 133 8.0 16.1 0.00 0.00 0.00 87 1019.5
20260830140328 23 155 11.3 16.1 0.00 0.00 0.00 87 1019.5
20260830140230 23 138 8.0 12.9 0.00 0.00 0.00 87 1019.5
20260830140201 23 137 4.8 12.9 0.00 0.00 0.00 87 1019.5
20260830140038 23 127 3.2 12.9 0.00 0.00 0.00 87 1019.5
20260830135937 23 121 8.0 12.9 0.00 0.00 0.00 87 1019.5
20260830135836 23 137 6.4 12.9 0.00 0.00 0.00 87 1019.5
20260830135738 23 152 1.6 12.9 0.00 0.00 0.00 87 1019.4
20260830135635 23 141 6.4 12.9 0.00 0.00 0.00 87 1019.4
20260830135534 23 130 8.0 12.9 0.00 0.00 0.00 87 1019.4
20260830135440 23 143 6.4 11.3 0.00 0.00 0.00 87 1019.4
20260830135336 23 127 8.0 11.3 0.00 0.00 0.00 88 1019.4
20260830135255 23 128 8.0 11.3 0.00 0.00 0.00 88 1019.4
20260830135132 23 154 8.0 11.3 0.00 0.00 0.00 88 1019.4
20260830135031 23 152 6.4 11.3 0.00 0.00 0.00 88 1019.4
20260830134931 23 137 6.4 12.9 0.00 0.00 0.00 88 1019.4
20260830134847 23 158 4.8 12.9 0.00 0.00 0.00 88 1019.4
20260830134739 23 137 8.0 12.9 0.00 0.00 0.00 88 1019.4
20260830134651 23 161 9.7 12.9 0.00 0.00 0.00 88 1019.4
20260830134529 23 157 8.0 12.9 0.00 0.00 0.00 88 1019.4
20260830134448 23 178 8.0 12.9 0.00 0.00 0.00 88 1019.4
20260830134406 23 162 8.0 12.9 0.00 0.00 0.00 88 1019.4
20260830134244 23 151 8.0 12.9 0.00 0.00 0.00 88 1019.4
20260830134142 23 160 8.0 12.9 0.00 0.00 0.00 88 1019.4
20260830134041 23 168 6.4 12.9 0.00 0.00 0.00 88 1019.4
20260830133959 23 178 3.2 11.3 0.00 0.00 0.00 88 1019.4
20260830133836 23 172 4.8 12.9 0.00 0.00 0.00 88 1019.4
20260830133740 23 176 8.0 12.9 0.00 0.00 0.00 88 1019.4
20260830133637 23 174 8.0 12.9 0.00 0.00 0.00 88 1019.4
20260830133535 23 158 8.0 12.9 0.00 0.00 0.00 88 1019.4
20260830133433 23 171 6.4 12.9 0.00 0.00 0.00 88 1019.4
20260830133332 23 165 4.8 12.9 0.00 0.00 0.00 88 1019.4
20260830133230 23 172 4.8 12.9 0.00 0.00 0.00 88 1019.4
20260830133201 23 176 4.8 12.9 0.00 0.00 0.00 88 1019.4
20260830133035 23 176 8.0 12.9 0.00 0.00 0.00 88 1019.4
20260830132937 23 184 8.0 12.9 0.00 0.00 0.00 88 1019.4
20260830132856 23 161 6.4 9.7 0.00 0.00 0.00 88 1019.4
20260830132732 23 150 6.4 9.7 0.00 0.00 0.00 88 1019.2
20260830132651 23 151 6.4 9.7 0.00 0.00 0.00 88 1019.2
20260830132527 23 158 6.4 9.7 0.00 0.00 0.00 88 1019.2
20260830132426 23 158 6.4 9.7 0.00 0.00 0.00 88 1019.2
20260830132343 23 172 3.2 9.7 0.00 0.00 0.00 88 1019.2
20260830132243 23 150 4.8 9.7 0.00 0.00 0.00 88 1019.2
20260830132202 23 151 6.4 9.7 0.00 0.00 0.00 88 1019.2
20260830132059 23 161 4.8 11.3 0.00 0.00 0.00 88 1019.2
20260830132001 23 161 6.4 11.3 0.00 0.00 0.00 88 1019.2
20260830131838 23 161 6.4 12.9 0.00 0.00 0.00 88 1019.2
20260830131756 23 161 3.2 12.9 0.00 0.00 0.00 88 1019.2
20260830131705 23 158 3.2 12.9 0.00 0.00 0.00 89 1019.2
20260830131543 23 157 4.8 12.9 0.00 0.00 0.00 89 1019.2
20260830131443 23 147 6.4 12.9 0.00 0.00 0.00 89 1019.2
20260830131402 23 148 4.8 12.9 0.00 0.00 0.00 89 1019.2
20260830131240 23 147 6.4 12.9 0.00 0.00 0.00 89 1019.0
20260830131143 23 144 9.7 12.9 0.00 0.00 0.00 89 1019.0
20260830131041 23 150 8.0 12.9 0.00 0.00 0.00 89 1019.0
20260830130941 23 152 4.8 11.3 0.00 0.00 0.00 89 1019.0
20260830130900 23 152 4.8 11.3 0.00 0.00 0.00 89 1019.0
20260830130739 23 152 3.2 12.9 0.00 0.00 0.00 89 1019.0
20260830130636 23 151 6.4 12.9 0.00 0.00 0.00 89 1019.0
20260830130555 23 155 6.4 12.9 0.00 0.00 0.00 89 1019.0
20260830130452 23 157 6.4 12.9 0.00 0.00 0.00 89 1019.0
20260830130334 23 168 6.4 12.9 0.00 0.00 0.00 89 1019.0
20260830130233 23 184 6.4 12.9 0.00 0.00 0.00 89 1019.0
20260830130203 23 155 6.4 12.9 0.00 0.00 0.00 89 1019.0
20260830130040 23 145 8.0 12.9 0.00 0.00 0.00 89 1019.0
20260830125939 23 151 9.7 12.9 0.00 0.00 0.00 89 1019.0
20260830125838 23 160 6.4 12.9 0.00 0.00 0.00 89 1019.0
20260830125736 23 181 4.8 12.9 0.00 0.00 0.00 89 1018.9
20260830125639 23 176 4.8 12.9 0.00 0.00 0.00 89 1018.9
20260830125540 23 175 6.4 12.9 0.00 0.00 0.00 89 1018.9
20260830125438 23 200 4.8 12.9 0.00 0.00 0.00 89 1018.9
20260830125358 23 186 6.4 12.9 0.00 0.00 0.00 89 1018.9
20260830125237 23 206 8.0 12.9 0.00 0.00 0.00 89 1018.9
20260830125135 23 220 3.2 11.3 0.00 0.00 0.00 89 1018.9
20260830125053 22 224 8.0 11.3 0.00 0.00 0.00 89 1018.9
20260830124931 22 206 9.7 11.3 0.00 0.00 0.00 89 1018.9
20260830124854 22 230 8.0 12.9 0.00 0.00 0.00 89 1018.9
20260830124804 22 233 8.0 12.9 0.00 0.00 0.00 89 1018.9
20260830124651 22 230 4.8 12.9 0.00 0.00 0.00 89 1018.9
20260830124532 22 226 3.2 12.9 0.00 0.00 0.00 89 1018.9
20260830124452 22 206 3.2 12.9 0.00 0.00 0.00 89 1018.9
20260830124331 22 202 3.2 12.9 0.00 0.00 0.00 89 1018.9
20260830124229 22 198 4.8 12.9 0.00 0.00 0.00 89 1018.7
20260830124127 22 200 4.8 12.9 0.00 0.00 0.00 89 1018.7
20260830124030 22 196 8.0 12.9 0.00 0.00 0.00 89 1018.7
20260830123929 22 191 6.4 12.9 0.00 0.00 0.00 89 1018.7
20260830123829 22 192 4.8 12.9 0.00 0.00 0.00 89 1018.7
20260830123730 22 171 4.8 12.9 0.00 0.00 0.00 89 1018.7
20260830123649 22 176 6.4 12.9 0.00 0.00 0.00 89 1018.7
20260830123527 22 191 8.0 12.9 0.00 0.00 0.00 89 1018.7
20260830123425 22 169 8.0 12.9 0.00 0.00 0.00 89 1018.7
20260830123328 22 186 8.0 11.3 0.00 0.00 0.00 89 1018.7
20260830123247 22 188 6.4 11.3 0.00 0.00 0.00 89 1018.7
20260830123217 22 179 6.4 11.3 0.00 0.00 0.00 89 1018.7
20260830123032 22 174 4.8 12.9 0.00 0.00 0.00 89 1018.7
20260830122932 22 189 3.2 12.9 0.00 0.00 0.00 88 1018.7
20260830122830 22 164 4.8 12.9 0.00 0.00 0.00 88 1018.7
20260830122728 22 157 6.4 12.9 0.00 0.00 0.00 88 1018.4
20260830122627 22 178 6.4 12.9 0.00 0.00 0.00 88 1018.4
20260830122551 22 168 4.8 12.9 0.00 0.00 0.00 88 1018.4
20260830122428 22 168 4.8 12.9 0.00 0.00 0.00 88 1018.4
20260830122327 22 144 4.8 16.1 0.00 0.00 0.00 88 1018.4
20260830122226 22 138 9.7 16.1 0.00 0.00 0.00 88 1018.4
20260830122128 22 168 6.4 16.1 0.00 0.00 0.00 88 1018.4
20260830122047 22 165 8.0 16.1 0.00 0.00 0.00 88 1018.4
20260830121926 22 136 6.4 16.1 0.00 0.00 0.00 88 1018.4
20260830121828 22 158 8.0 16.1 0.00 0.00 0.00 88 1018.4
20260830121726 22 161 6.4 16.1 0.00 0.00 0.00 88 1018.4
20260830121655 22 154 8.0 16.1 0.00 0.00 0.00 88 1018.4
20260830121532 22 154 9.7 16.1 0.00 0.00 0.00 88 1018.4
20260830121430 22 160 9.7 14.5 0.00 0.00 0.00 88 1018.4
20260830121329 22 172 4.8 12.9 0.00 0.00 0.00 88 1018.4
20260830121227 22 176 6.4 12.9 0.00 0.00 0.00 88 1018.3
20260830121129 22 167 9.7 12.9 0.00 0.00 0.00 88 1018.3
20260830121025 22 144 9.7 12.9 0.00 0.00 0.00 88 1018.3
20260830120943 22 165 8.0 12.9 0.00 0.00 0.00 88 1018.3
20260830120842 22 174 6.4 12.9 0.00 0.00 0.00 88 1018.3
20260830120743 22 171 8.0 12.9 0.00 0.00 0.00 88 1018.3
20260830120643 22 172 6.4 12.9 0.00 0.00 0.00 88 1018.3
20260830120543 22 160 8.0 12.9 0.00 0.00 0.00 88 1018.3
20260830120442 22 164 8.0 12.9 0.00 0.00 0.00 88 1018.3
20260830120324 22 182 6.4 12.9 0.00 0.00 0.00 88 1018.3
20260830120243 22 182 6.4 12.9 0.00 0.00 0.00 88 1018.3
20260830120153 22 144 8.0 12.9 0.00 0.00 0.00 88 1018.3
20260830120028 22 174 4.8 12.9 0.00 0.00 0.00 88 1018.3
20260830115946 22 168 6.4 12.9 0.00 0.00 0.00 88 1018.3
20260830115842 22 165 6.4 12.9 0.00 0.00 0.00 88 1018.3
20260830115741 22 167 8.0 12.9 0.00 0.00 0.00 88 1018.2
20260830115639 22 184 6.4 12.9 0.00 0.00 0.00 88 1018.2
20260830115538 22 189 6.4 16.1 0.00 0.00 0.00 88 1018.2
20260830115440 22 172 6.4 20.9 0.00 0.00 0.00 88 1018.2
20260830115338 22 165 6.4 20.9 0.00 0.00 0.00 88 1018.2
20260830115238 22 179 4.8 20.9 0.00 0.00 0.00 88 1018.2
20260830115158 22 143 8.0 20.9 0.00 0.00 0.00 88 1018.2
20260830115057 22 169 8.0 20.9 0.00 0.00 0.00 87 1018.2
20260830114935 22 174 8.0 20.9 0.00 0.00 0.00 87 1018.2
20260830114854 22 168 8.0 20.9 0.00 0.00 0.00 87 1018.2
20260830114730 22 172 8.0 20.9 0.00 0.00 0.00 87 1018.2
20260830114659 22 186 9.7 20.9 0.00 0.00 0.00 87 1018.2
20260830114541 22 192 9.7 17.7 0.00 0.00 0.00 87 1018.2
20260830114439 22 175 9.7 17.7 0.00 0.00 0.00 87 1018.2
20260830114336 22 184 8.0 17.7 0.00 0.00 0.00 87 1018.2
20260830114235 22 188 6.4 17.7 0.00 0.00 0.00 87 1018.2
20260830114133 22 181 8.0 17.7 0.00 0.00 0.00 87 1018.2
20260830114050 22 158 6.4 17.7 0.00 0.00 0.00 87 1018.2
20260830113928 22 192 8.0 17.7 0.00 0.00 0.00 87 1018.2
20260830113847 22 188 11.3 17.7 0.00 0.00 0.00 87 1018.2
20260830113805 22 158 8.0 14.5 0.00 0.00 0.00 87 1018.2
20260830113707 22 168 6.4 14.5 0.00 0.00 0.00 87 1018.2
20260830113604 22 169 8.0 14.5 0.00 0.00 0.00 87 1018.2
20260830113442 22 181 9.7 14.5 0.00 0.00 0.00 87 1018.2
20260830113341 22 168 8.0 16.1 0.00 0.00 0.00 87 1018.2
20260830113238 22 162 8.0 16.1 0.00 0.00 0.00 87 1018.2
20260830113210 22 174 6.4 16.1 0.00 0.00 0.00 87 1018.2
20260830113029 22 174 8.0 17.7 0.00 0.00 0.00 87 1018.2
20260830112926 22 167 8.0 17.7 0.00 0.00 0.00 87 1018.2
20260830112829 22 162 6.4 17.7 0.00 0.00 0.00 87 1018.2
20260830112726 22 167 9.7 17.7 0.00 0.00 0.00 87 1018.0
20260830112645 22 171 9.7 17.7 0.00 0.00 0.00 87 1018.0
20260830112604 22 158 9.7 17.7 0.00 0.00 0.00 87 1018.0
20260830112503 22 154 9.7 17.7 0.00 0.00 0.00 87 1018.0
20260830112339 22 144 8.0 17.7 0.00 0.00 0.00 87 1018.0
20260830112258 22 176 9.7 17.7 0.00 0.00 0.00 87 1018.0
20260830112135 22 169 9.7 17.7 0.00 0.00 0.00 87 1018.0
20260830112034 22 182 8.0 17.7 0.00 0.00 0.00 87 1018.0
20260830111936 22 140 8.0 17.7 0.00 0.00 0.00 87 1018.0
20260830111834 22 164 8.0 17.7 0.00 0.00 0.00 87 1018.0
20260830111733 22 152 9.7 17.7 0.00 0.00 0.00 87 1018.0
20260830111702 22 161 9.7 17.7 0.00 0.00 0.00 87 1018.0
20260830111540 22 157 9.7 17.7 0.00 0.00 0.00 87 1018.0
20260830111438 22 158 9.7 17.7 0.00 0.00 0.00 87 1018.0
20260830111338 22 165 12.9 17.7 0.00 0.00 0.00 87 1018.0
20260830111241 22 137 9.7 17.7 0.00 0.00 0.00 87 1017.6
20260830111140 22 174 9.7 17.7 0.00 0.00 0.00 87 1017.6
20260830111040 22 162 8.0 17.7 0.00 0.00 0.00 87 1017.6
20260830110938 22 179 8.0 17.7 0.00 0.00 0.00 87 1017.6
20260830110837 22 157 8.0 17.7 0.00 0.00 0.00 87 1017.6
20260830110735 22 172 6.4 17.7 0.00 0.00 0.00 87 1017.6
20260830110634 22 168 8.0 17.7 0.00 0.00 0.00 87 1017.6
20260830110536 22 169 8.0 19.3 0.00 0.00 0.00 86 1017.6
20260830110433 22 157 9.7 19.3 0.00 0.00 0.00 86 1017.6
20260830110332 22 175 8.0 19.3 0.00 0.00 0.00 86 1017.6
20260830110251 22 174 12.9 19.3 0.00 0.00 0.00 86 1017.6
20260830110222 22 154 11.3 19.3 0.00 0.00 0.00 86 1017.6
20260830110039 22 141 9.7 19.3 0.00 0.00 0.00 86 1017.6
20260830105937 22 150 8.0 19.3 0.00 0.00 0.00 86 1017.6
20260830105840 22 164 9.7 19.3 0.00 0.00 0.00 86 1017.6
20260830105739 22 165 11.3 19.3 0.00 0.00 0.00 86 1017.5
20260830105638 22 169 9.7 19.3 0.00 0.00 0.00 86 1017.5
20260830105538 22 152 11.3 19.3 0.00 0.00 0.00 86 1017.5
20260830105437 22 168 12.9 19.3 0.00 0.00 0.00 86 1017.5
20260830105335 22 167 11.3 16.1 0.00 0.00 0.00 86 1017.5
20260830105253 23 164 11.3 17.7 0.00 0.00 0.00 86 1017.5
20260830105135 23 160 9.7 17.7 0.00 0.00 0.00 86 1017.5
20260830105033 23 171 8.0 17.7 0.00 0.00 0.00 86 1017.5
20260830104931 23 171 6.4 17.7 0.00 0.00 0.00 86 1017.5
20260830104834 23 185 6.4 17.7 0.00 0.00 0.00 86 1017.5
20260830104804 23 176 9.7 17.7 0.00 0.00 0.00 86 1017.5
20260830104651 23 151 9.7 17.7 0.00 0.00 0.00 86 1017.5
20260830104529 23 152 8.0 17.7 0.00 0.00 0.00 86 1017.5
20260830104428 23 141 9.7 17.7 0.00 0.00 0.00 86 1017.5
20260830104331 23 143 9.7 19.3 0.00 0.00 0.00 86 1017.5
20260830104229 23 165 6.4 19.3 0.00 0.00 0.00 86 1017.3
20260830104128 23 155 8.0 19.3 0.00 0.00 0.00 86 1017.3
20260830104048 23 179 9.7 19.3 0.00 0.00 0.00 86 1017.3
20260830103925 23 182 8.0 19.3 0.00 0.00 0.00 86 1017.3
20260830103843 23 164 8.0 19.3 0.00 0.00 0.00 86 1017.3
20260830103744 23 161 9.7 19.3 0.00 0.00 0.00 86 1017.3
20260830103626 23 161 8.0 19.3 0.00 0.00 0.00 86 1017.3
20260830103524 23 167 11.3 19.3 0.00 0.00 0.00 86 1017.3
20260830103424 23 174 11.3 17.7 0.00 0.00 0.00 86 1017.3
20260830103325 23 164 11.3 17.7 0.00 0.00 0.00 86 1017.3
20260830103235 23 167 14.5 17.7 0.00 0.00 0.00 86 1017.3
20260830103146 23 157 8.0 17.7 0.00 0.00 0.00 86 1017.3
20260830103043 23 181 9.7 17.7 0.00 0.00 0.00 86 1017.3
20260830102927 23 167 9.7 17.7 0.00 0.00 0.00 86 1017.3
20260830102826 23 161 8.0 14.5 0.00 0.00 0.00 86 1017.3
20260830102743 23 176 9.7 12.9 0.00 0.00 0.00 86 1017.3
20260830102643 23 164 8.0 12.9 0.00 0.00 0.00 86 1017.3
20260830102602 23 160 8.0 12.9 0.00 0.00 0.00 86 1017.3
20260830102440 23 160 9.7 12.9 0.00 0.00 0.00 86 1017.3
20260830102339 23 164 9.7 16.1 0.00 0.00 0.00 86 1017.3
20260830102241 23 181 8.0 16.1 0.00 0.00 0.00 86 1017.3
20260830102159 23 141 9.7 17.7 0.00 0.00 0.00 86 1017.3
20260830102058 23 136 9.7 17.7 0.00 0.00 0.00 86 1017.3
20260830101936 23 154 8.0 17.7 0.00 0.00 0.00 86 1017.3
20260830101835 23 162 8.0 17.7 0.00 0.00 0.00 86 1017.3
20260830101743 23 191 9.7 17.7 0.00 0.00 0.00 86 1017.3
20260830101652 23 161 8.0 17.7 0.00 0.00 0.00 85 1017.3
20260830101551 23 136 12.9 19.3 0.00 0.00 0.00 85 1017.3
20260830101448 23 161 11.3 19.3 0.00 0.00 0.00 85 1017.3
20260830101330 23 161 12.9 19.3 0.00 0.00 0.00 85 1017.3
20260830101229 23 164 9.7 19.3 0.00 0.00 0.00 85 1017.0
20260830101129 23 158 9.7 19.3 0.00 0.00 0.00 85 1017.0
20260830101028 23 147 9.7 19.3 0.00 0.00 0.00 85 1017.0
20260830100930 23 172 11.3 19.3 0.00 0.00 0.00 85 1017.0
20260830100848 23 157 9.7 19.3 0.00 0.00 0.00 85 1017.0
20260830100726 23 160 12.9 19.3 0.00 0.00 0.00 85 1017.0
20260830100629 23 167 9.7 17.7 0.00 0.00 0.00 85 1017.0
20260830100532 23 121 11.3 17.7 0.00 0.00 0.00 85 1017.0
20260830100449 23 155 11.3 17.7 0.00 0.00 0.00 85 1017.0
20260830100327 23 160 11.3 17.7 0.00 0.00 0.00 85 1017.0
20260830100246 23 172 11.3 17.7 0.00 0.00 0.00 85 1017.0
20260830100156 23 148 8.0 17.7 0.00 0.00 0.00 85 1017.0
20260830100033 23 154 8.0 17.7 0.00 0.00 0.00 85 1017.0
20260830095930 23 152 12.9 17.7 0.00 0.00 0.00 85 1017.0
20260830095833 23 165 9.7 17.7 0.00 0.00 0.00 85 1017.0
20260830095731 23 167 8.0 17.7 0.00 0.00 0.00 85 1017.0
20260830095650 23 178 9.7 17.7 0.00 0.00 0.00 84 1017.0
20260830095528 23 199 9.7 17.7 0.00 0.00 0.00 84 1017.0
20260830095425 23 179 8.0 17.7 0.00 0.00 0.00 84 1017.0
20260830095345 23 168 9.7 17.7 0.00 0.00 0.00 84 1017.0
20260830095227 23 172 11.3 17.7 0.00 0.00 0.00 84 1017.0
20260830095125 23 155 9.7 16.1 0.00 0.00 0.00 84 1017.0
20260830095028 23 192 6.4 16.1 0.00 0.00 0.00 84 1017.0
20260830094928 23 176 8.0 16.1 0.00 0.00 0.00 84 1017.0
20260830094826 23 155 4.8 16.1 0.00 0.00 0.00 84 1017.0
20260830094745 23 176 8.0 16.1 0.00 0.00 0.00 84 1017.0
20260830094716 23 178 8.0 16.1 0.00 0.00 0.00 84 1017.0
20260830094554 23 171 9.7 16.1 0.00 0.00 0.00 84 1017.0
20260830094452 23 185 4.8 16.1 0.00 0.00 0.00 84 1017.0
20260830094330 23 181 8.0 16.1 0.00 0.00 0.00 84 1017.0
20260830094234 23 181 9.7 19.3 0.00 0.00 0.00 84 1017.0
20260830094152 23 155 9.7 19.3 0.00 0.00 0.00 84 1017.0
20260830094034 23 164 9.7 19.3 0.00 0.00 0.00 84 1017.0
20260830093933 23 184 8.0 19.3 0.00 0.00 0.00 84 1017.0
20260830093833 23 185 8.0 19.3 0.00 0.00 0.00 84 1017.0
20260830093731 23 186 8.0 19.3 0.00 0.00 0.00 84 1017.0
20260830093651 23 171 6.4 19.3 0.00 0.00 0.00 84 1017.0
20260830093529 23 191 9.7 19.3 0.00 0.00 0.00 84 1017.0
20260830093434 23 185 11.3 19.3 0.00 0.00 0.00 84 1017.0
20260830093333 23 192 8.0 19.3 0.00 0.00 0.00 84 1017.0
20260830093230 23 176 8.0 19.3 0.00 0.00 0.00 84 1017.0
20260830093200 23 193 9.7 19.3 0.00 0.00 0.00 84 1017.0
20260830093037 23 203 9.7 19.3 0.00 0.00 0.00 84 1017.0
20260830092935 23 188 9.7 17.7 0.00 0.00 0.00 84 1017.0
20260830092833 23 176 8.0 17.7 0.00 0.00 0.00 84 1017.0
20260830092736 23 160 9.7 17.7 0.00 0.00 0.00 84 1017.0
20260830092634 23 202 8.0 17.7 0.00 0.00 0.00 84 1017.0
20260830092538 23 200 8.0 17.7 0.00 0.00 0.00 84 1017.0
20260830092436 23 205 9.7 17.7 0.00 0.00 0.00 84 1017.0
20260830092336 23 174 9.7 17.7 0.00 0.00 0.00 84 1017.0
20260830092235 23 209 8.0 17.7 0.00 0.00 0.00 84 1017.0
20260830092138 23 186 9.7 17.7 0.00 0.00 0.00 84 1017.0
20260830092036 23 175 8.0 16.1 0.00 0.00 0.00 84 1017.0
20260830091935 23 176 9.7 17.7 0.00 0.00 0.00 84 1017.0
20260830091833 23 181 6.4 20.9 0.00 0.00 0.00 84 1017.0
20260830091731 23 165 9.7 20.9 0.00 0.00 0.00 84 1017.0
20260830091702 23 171 8.0 20.9 0.00 0.00 0.00 84 1017.0
20260830091540 23 179 8.0 20.9 0.00 0.00 0.00 84 1017.0
20260830091438 23 212 9.7 20.9 0.00 0.00 0.00 84 1017.0
20260830091341 23 185 9.7 20.9 0.00 0.00 0.00 84 1017.0
20260830091240 23 188 6.4 20.9 0.00 0.00 0.00 84 1016.9
20260830091138 23 175 8.0 20.9 0.00 0.00 0.00 84 1016.9
20260830091038 23 184 9.7 20.9 0.00 0.00 0.00 84 1016.9
20260830090938 23 186 11.3 19.3 0.00 0.00 0.00 84 1016.9
20260830090837 23 164 8.0 19.3 0.00 0.00 0.00 84 1016.9
20260830090756 23 185 9.7 19.3 0.00 0.00 0.00 84 1016.9
20260830090637 23 174 9.7 19.3 0.00 0.00 0.00 84 1016.9
20260830090534 23 158 9.7 19.3 0.00 0.00 0.00 84 1016.9
20260830090453 23 193 9.7 19.3 0.00 0.00 0.00 84 1016.9
20260830090331 23 184 9.7 19.3 0.00 0.00 0.00 84 1016.9
20260830090230 23 169 8.0 19.3 0.00 0.00 0.00 84 1016.9
20260830090202 23 212 8.0 19.3 0.00 0.00 0.00 84 1016.9
20260830090038 23 178 9.7 17.7 0.00 0.00 0.00 84 1016.9
20260830085937 23 186 11.3 17.7 0.00 0.00 0.00 84 1016.9
20260830085900 23 176 11.3 17.7 0.00 0.00 0.00 83 1016.9
20260830085739 23 181 8.0 16.1 0.00 0.00 0.00 83 1017.0
20260830085657 23 160 6.4 16.1 0.00 0.00 0.00 83 1017.0
20260830085535 23 181 11.3 16.1 0.00 0.00 0.00 83 1017.0
20260830085452 23 164 8.0 17.7 0.00 0.00 0.00 83 1017.0
20260830085329 23 184 8.0 19.3 0.00 0.00 0.00 83 1017.0
20260830085248 23 168 8.0 25.7 0.00 0.00 0.00 83 1017.0
20260830085145 23 176 6.4 25.7 0.00 0.00 0.00 83 1017.0
20260830085103 23 164 6.4 25.7 0.00 0.00 0.00 83 1017.0
20260830084824 23 167 8.0 25.7 0.00 0.00 0.00 83 1017.0
20260830084736 23 182 11.3 25.7 0.00 0.00 0.00 83 1017.0
20260830084647 23 188 11.3 25.7 0.00 0.00 0.00 83 1017.0
20260830084543 23 196 11.3 25.7 0.00 0.00 0.00 83 1017.0
20260830084443 23 191 8.0 25.7 0.00 0.00 0.00 83 1017.0
20260830084342 23 192 11.3 25.7 0.00 0.00 0.00 83 1017.0
20260830084223 23 134 8.0 22.5 0.00 0.00 0.00 83 1016.9
20260830084125 23 175 8.0 22.5 0.00 0.00 0.00 83 1016.9
20260830084043 23 176 9.7 22.5 0.00 0.00 0.00 83 1016.9
20260830083942 23 195 11.3 22.5 0.00 0.00 0.00 83 1016.9
20260830083841 23 178 11.3 22.5 0.00 0.00 0.00 83 1016.9
20260830083740 23 209 8.0 22.5 0.00 0.00 0.00 83 1016.9
20260830083639 23 165 8.0 22.5 0.00 0.00 0.00 83 1016.9
20260830083541 23 202 8.0 22.5 0.00 0.00 0.00 83 1016.9
20260830083440 23 205 11.3 22.5 0.00 0.00 0.00 83 1016.9
20260830083339 23 172 16.1 22.5 0.00 0.00 0.00 83 1016.9
20260830083235 23 200 14.5 22.5 0.00 0.00 0.00 83 1016.9
20260830083206 23 178 12.9 22.5 0.00 0.00 0.00 83 1016.9
20260830083104 23 198 11.3 22.5 0.00 0.00 0.00 83 1016.9
20260830082941 23 215 9.7 22.5 0.00 0.00 0.00 83 1016.9
20260830082840 23 196 8.0 19.3 0.00 0.00 0.00 83 1016.9
20260830082743 23 186 6.4 19.3 0.00 0.00 0.00 83 1016.9
20260830082642 23 179 6.4 19.3 0.00 0.00 0.00 83 1016.9
20260830082540 23 195 8.0 19.3 0.00 0.00 0.00 83 1016.9
20260830082457 23 191 6.4 19.3 0.00 0.00 0.00 83 1016.9
20260830082336 23 184 8.0 19.3 0.00 0.00 0.00 83 1016.9
20260830082233 23 191 8.0 19.3 0.00 0.00 0.00 83 1016.9
20260830082132 23 181 6.4 19.3 0.00 0.00 0.00 83 1016.9
20260830082035 23 198 9.7 19.3 0.00 0.00 0.00 83 1016.9
20260830081933 23 189 11.3 19.3 0.00 0.00 0.00 83 1016.9
20260830081855 23 188 8.0 17.7 0.00 0.00 0.00 83 1016.9
20260830081742 23 179 9.7 17.7 0.00 0.00 0.00 83 1016.9
20260830081651 23 191 8.0 17.7 0.00 0.00 0.00 83 1016.9
20260830081531 23 175 9.7 19.3 0.00 0.00 0.00 83 1016.9
20260830081430 23 160 11.3 19.3 0.00 0.00 0.00 83 1016.9
20260830081329 23 167 8.0 19.3 0.00 0.00 0.00 83 1016.9
20260830081226 23 193 6.4 19.3 0.00 0.00 0.00 83 1016.7
20260830081130 23 200 9.7 19.3 0.00 0.00 0.00 83 1016.7
20260830081029 23 192 9.7 19.3 0.00 0.00 0.00 83 1016.7
20260830080928 23 188 8.0 19.3 0.00 0.00 0.00 83 1016.7
20260830080828 23 176 9.7 19.3 0.00 0.00 0.00 83 1016.7
20260830080747 23 169 9.7 19.3 0.00 0.00 0.00 83 1016.7
20260830080626 23 179 8.0 19.3 0.00 0.00 0.00 83 1016.7
20260830080525 23 184 9.7 19.3 0.00 0.00 0.00 83 1016.7
20260830080427 23 174 8.0 19.3 0.00 0.00 0.00 84 1016.7
20260830080327 23 172 9.7 19.3 0.00 0.00 0.00 84 1016.7
20260830080237 23 191 12.9 19.3 0.00 0.00 0.00 84 1016.7
20260830080146 23 179 8.0 19.3 0.00 0.00 0.00 83 1016.7
20260830080044 23 196 9.7 19.3 0.00 0.00 0.00 83 1016.7
20260830080002 23 178 12.9 17.7 0.00 0.00 0.00 84 1016.7
20260830075840 23 193 9.7 17.7 0.00 0.00 0.00 83 1016.7
20260830075724 23 178 11.3 17.7 0.00 0.00 0.00 84 1016.8
20260830075643 23 167 11.3 17.7 0.00 0.00 0.00 84 1016.8
20260830075521 23 191 9.7 17.7 0.00 0.00 0.00 83 1016.8
20260830075443 23 176 9.7 17.7 0.00 0.00 0.00 83 1016.8
20260830075401 23 192 9.7 17.7 0.00 0.00 0.00 84 1016.8
20260830075239 23 160 9.7 17.7 0.00 0.00 0.00 84 1016.8
20260830075138 23 181 9.7 19.3 0.00 0.00 0.00 83 1016.8
20260830075035 23 161 11.3 19.3 0.00 0.00 0.00 83 1016.8
20260830074937 23 195 11.3 19.3 0.00 0.00 0.00 83 1016.8
20260830074836 23 191 11.3 19.3 0.00 0.00 0.00 83 1016.8
20260830074755 23 164 11.3 19.3 0.00 0.00 0.00 83 1016.8
20260830074703 23 168 11.3 19.3 0.00 0.00 0.00 83 1016.8
20260830074600 23 189 9.7 19.3 0.00 0.00 0.00 83 1016.8
20260830074439 23 165 9.7 19.3 0.00 0.00 0.00 83 1016.8
20260830074339 23 185 9.7 19.3 0.00 0.00 0.00 83 1016.8
20260830074238 23 178 11.3 17.7 0.00 0.00 0.00 83 1016.8
20260830074140 23 161 9.7 17.7 0.00 0.00 0.00 83 1016.8
20260830074039 23 182 8.0 17.7 0.00 0.00 0.00 83 1016.8
20260830073939 23 174 8.0 17.7 0.00 0.00 0.00 83 1016.8
20260830073840 23 196 9.7 20.9 0.00 0.00 0.00 83 1016.8
20260830073737 23 184 9.7 20.9 0.00 0.00 0.00 83 1016.8
20260830073636 23 161 8.0 20.9 0.00 0.00 0.00 83 1016.8
20260830073555 23 150 8.0 20.9 0.00 0.00 0.00 83 1016.8
20260830073437 23 195 8.0 20.9 0.00 0.00 0.00 83 1016.8
20260830073334 23 162 8.0 20.9 0.00 0.00 0.00 83 1016.8
20260830073253 23 158 6.4 20.9 0.00 0.00 0.00 83 1016.8
20260830073222 23 175 8.0 20.9 0.00 0.00 0.00 83 1016.8
20260830073058 23 158 12.9 20.9 0.00 0.00 0.00 83 1016.8
20260830072933 23 145 11.3 20.9 0.00 0.00 0.00 83 1016.8
20260830072833 23 169 11.3 19.3 0.00 0.00 0.00 83 1016.8
20260830072732 23 174 9.7 19.3 0.00 0.00 0.00 83 1016.9
20260830072630 23 182 9.7 19.3 0.00 0.00 0.00 83 1016.9
20260830072552 23 172 9.7 19.3 0.00 0.00 0.00 83 1016.9
20260830072430 23 145 11.3 19.3 0.00 0.00 0.00 83 1016.9
20260830072331 23 152 12.9 19.3 0.00 0.00 0.00 83 1016.9
20260830072228 23 162 8.0 19.3 0.00 0.00 0.00 83 1016.9
20260830072127 23 195 9.7 19.3 0.00 0.00 0.00 83 1016.9
20260830072028 23 150 6.4 19.3 0.00 0.00 0.00 83 1016.9
20260830071927 23 169 9.7 19.3 0.00 0.00 0.00 83 1016.9
20260830071829 23 147 6.4 19.3 0.00 0.00 0.00 83 1016.9
20260830071729 23 160 9.7 19.3 0.00 0.00 0.00 83 1016.9
20260830071658 23 179 11.3 19.3 0.00 0.00 0.00 83 1016.9
20260830071537 23 174 9.7 19.3 0.00 0.00 0.00 83 1016.9
20260830071435 23 161 11.3 19.3 0.00 0.00 0.00 83 1016.9
20260830071354 23 158 11.3 19.3 0.00 0.00 0.00 83 1016.9
20260830071232 23 162 11.3 19.3 0.00 0.00 0.00 83 1017.0
20260830071136 23 213 11.3 19.3 0.00 0.00 0.00 83 1017.0
20260830071035 23 178 9.7 19.3 0.00 0.00 0.00 83 1017.0
20260830070933 23 174 8.0 19.3 0.00 0.00 0.00 83 1017.0
20260830070831 23 144 9.7 19.3 0.00 0.00 0.00 83 1017.0
20260830070729 23 158 12.9 19.3 0.00 0.00 0.00 83 1017.0
20260830070628 23 164 9.7 19.3 0.00 0.00 0.00 83 1017.0
20260830070527 23 171 11.3 19.3 0.00 0.00 0.00 83 1017.0
20260830070431 23 150 9.7 19.3 0.00 0.00 0.00 83 1017.0
20260830070329 23 154 8.0 19.3 0.00 0.00 0.00 83 1017.0
20260830070239 23 162 16.1 19.3 0.00 0.00 0.00 83 1017.0
20260830070149 23 150 11.3 19.3 0.00 0.00 0.00 83 1017.0
20260830070026 23 162 11.3 19.3 0.00 0.00 0.00 83 1017.0
20260830065925 23 158 11.3 19.3 0.00 0.00 0.00 83 1017.0
20260830065843 23 184 12.9 20.9 0.00 0.00 0.00 83 1017.0
20260830065726 23 144 11.3 20.9 0.00 0.00 0.00 83 1017.0
20260830065625 23 158 11.3 20.9 0.00 0.00 0.00 83 1017.0
20260830065524 23 165 9.7 20.9 0.00 0.00 0.00 83 1017.0
20260830065442 23 151 9.7 20.9 0.00 0.00 0.00 83 1017.0
20260830065342 23 152 9.7 20.9 0.00 0.00 0.00 82 1017.0
20260830065241 23 191 9.7 20.9 0.00 0.00 0.00 82 1017.0
20260830065159 23 167 11.3 20.9 0.00 0.00 0.00 82 1017.0
20260830065056 23 176 11.3 20.9 0.00 0.00 0.00 82 1017.0
20260830064938 23 161 9.7 20.9 0.00 0.00 0.00 82 1017.0
20260830064838 23 152 11.3 20.9 0.00 0.00 0.00 82 1017.0
20260830064738 23 154 11.3 20.9 0.00 0.00 0.00 82 1017.0
20260830064646 23 160 11.3 20.9 0.00 0.00 0.00 82 1017.0
20260830064543 23 148 9.7 19.3 0.00 0.00 0.00 82 1017.0
20260830064442 23 130 9.7 19.3 0.00 0.00 0.00 82 1017.0
20260830064341 23 136 8.0 19.3 0.00 0.00 0.00 82 1017.0
20260830064244 23 179 8.0 19.3 0.00 0.00 0.00 82 1017.0
20260830064203 23 179 8.0 19.3 0.00 0.00 0.00 82 1017.0
20260830064041 23 127 11.3 19.3 0.00 0.00 0.00 82 1017.0
20260830063938 23 184 8.0 17.7 0.00 0.00 0.00 82 1017.0
20260830063838 23 162 9.7 17.7 0.00 0.00 0.00 82 1017.0
20260830063757 23 164 9.7 17.7 0.00 0.00 0.00 82 1017.0
20260830063634 23 165 8.0 17.7 0.00 0.00 0.00 81 1017.0
20260830063533 23 172 8.0 17.7 0.00 0.00 0.00 81 1017.0
20260830063436 23 161 9.7 17.7 0.00 0.00 0.00 81 1017.0